CWXXXX Weather Reports


Display with metric or nautical units.
time (UTC)temp
F
wind
direction
speed
MPH
gust
MPH
rain 1hr
in
rain 24hr
in
rain mn
in
humidity
%
barometer
mb
20260506004842 59 249 1.0 3.0 0.00 0.06 0.00 87 1012.2
20260506004835 51 294 3.0 4.0 0.00 0.35 0.00 88 1007.6
20260506004833 55 203 0.0 0.0 0.00 0.14 0.00 93 1010.8
20260506004819 53 188 0.0 0.0 0.00 0.19 0.00 94 1010.9
20260506004813 57 227 3.0 4.0 0.00 0.10 0.00 91 1011.5
20260506004348 62 166 5.0 8.0 0.00 0.00 0.00 84 1011.7
20260506004338 59 249 0.0 1.0 0.00 0.06 0.00 87 1012.1
20260506004332 51 294 2.0 4.0 0.00 0.35 0.00 88 1007.7
20260506004330 55 203 0.0 0.0 0.00 0.14 0.00 93 1010.8
20260506004319 53 188 0.0 0.0 0.00 0.19 0.00 95 1011.0
20260506004312 61 160 0.0 0.0 0.00 0.00 0.00 74 1012.5
20260506003844 62 169 2.0 8.0 0.00 0.00 0.00 84 1011.6
20260506003840 56 115 1.0 1.0 0.00 0.29 0.00 95 1012.2
20260506003838 51 294 3.0 3.0 0.00 0.35 0.00 88 1007.6
20260506003833 55 203 0.0 1.0 0.00 0.14 0.00 93 1010.9
20260506003825 53 189 0.0 0.0 0.00 0.19 0.00 95 1010.9
20260506003818 57 212 3.0 3.0 0.00 0.10 0.00 91 1011.6
20260506003815 61 160 0.0 0.0 0.00 0.00 0.00 74 1012.5
20260506003342 58 118 0.0 0.0 0.21 2.78 0.00 95 1009.6
20260506003340 59 249 0.0 1.0 0.00 0.06 0.00 87 1012.2
20260506003333 55 203 0.0 1.0 0.00 0.14 0.00 93 1010.9
20260506003331 56 115 0.0 2.0 0.00 0.29 0.00 95 1012.2
20260506003319 53 189 0.0 0.0 0.00 0.19 0.00 95 1010.9
20260506003312 57 267 2.0 3.0 0.00 0.10 0.00 90 1011.6
20260506002844 62 158 3.0 8.0 0.00 0.00 0.00 84 1011.6
20260506002839 59 249 0.0 1.0 0.00 0.06 0.00 87 1012.2
20260506002835 51 294 2.0 3.0 0.00 0.35 0.00 88 1007.6
20260506002833 57 29 2.0 4.0 0.04 2.52 0.00 95 1009.7
20260506002830 55 203 0.0 0.0 0.00 0.14 0.00 93 1011.0
20260506002819 53 188 0.0 0.0 0.00 0.19 0.00 94 1011.0
20260506002812 57 268 1.0 2.0 0.00 0.10 0.00 90 1011.5
20260506002343 59 249 0.0 2.0 0.00 0.06 0.00 86 1012.2
20260506002341 62 156 5.0 8.0 0.00 0.00 0.00 84 1011.7
20260506002338 51 294 3.0 4.0 0.00 0.35 0.00 88 1007.6
20260506002333 57 355 1.0 4.0 0.03 2.51 0.00 95 1009.7
20260506002331 56 115 0.0 2.0 0.00 0.29 0.00 95 1012.0
20260506002328 53 188 0.0 1.0 0.00 0.19 0.00 94 1011.0
20260506002318 57 268 0.0 2.0 0.00 0.10 0.00 90 1011.6
20260506002312 60 190 0.0 4.0 0.00 0.00 0.00 74 1012.4
20260506001851 58 118 0.0 0.0 0.34 2.77 0.00 94 1009.7
20260506001841 62 171 4.0 8.0 0.00 0.00 0.00 84 1011.7
20260506001838 60 249 2.0 3.0 0.00 0.06 0.00 85 1012.2
20260506001833 51 294 3.0 3.0 0.00 0.35 0.00 88 1007.9
20260506001831 58 255 2.0 3.0 0.02 2.50 0.00 95 1009.7
20260506001822 53 188 0.0 0.0 0.00 0.19 0.00 94 1011.0
20260506001815 61 173 2.0 4.0 0.00 0.00 0.00 74 1012.4
20260506001344 62 140 5.0 8.0 0.00 0.00 0.00 84 1011.7
20260506001338 51 294 2.0 4.0 0.00 0.35 0.00 88 1007.8
20260506001336 58 215 0.0 2.0 0.02 2.50 0.00 95 1009.7
20260506001333 55 203 0.0 0.0 0.00 0.14 0.00 93 1011.0
20260506001331 56 115 0.0 3.0 0.00 0.29 0.00 95 1012.0
20260506001322 53 188 0.0 0.0 0.00 0.19 0.00 94 1011.0
20260506001318 61 194 3.0 4.0 0.00 0.00 0.00 74 1012.5
20260506000844 62 172 5.0 8.0 0.00 0.00 0.00 84 1011.8
20260506000842 59 250 1.0 4.0 0.00 0.06 0.00 85 1012.4
20260506000837 56 115 2.0 3.0 0.00 0.29 0.00 95 1012.2
20260506000835 51 294 2.0 3.0 0.00 0.35 0.00 88 1008.0
20260506000833 55 203 0.0 0.0 0.00 0.14 0.00 93 1011.0
20260506000828 58 215 1.0 4.0 0.02 2.50 0.00 95 1009.7
20260506000819 53 188 0.0 0.0 0.00 0.19 0.00 94 1011.1
20260506000812 61 197 0.0 0.0 0.00 0.00 0.00 73 1012.6
20260506000349 58 118 0.0 0.0 0.31 2.74 0.00 94 1009.9
20260506000341 62 146 4.0 7.0 0.00 0.00 0.00 84 1011.7
20260506000336 55 203 0.0 0.0 0.00 0.14 0.00 93 1011.0
20260506000334 56 115 1.0 2.0 0.00 0.29 0.00 95 1012.3
20260506000325 53 188 0.0 0.0 0.00 0.19 0.00 94 1011.1
20260506000322 61 187 0.0 0.0 0.00 0.00 0.00 74 1012.6
20260506000318 58 268 2.0 3.0 0.00 0.10 0.00 90 1011.5
20260505235848 62 141 3.0 6.0 0.00 0.00 0.00 84 1011.8
20260505235841 51 294 1.0 3.0 0.00 0.35 0.00 88 1008.1
20260505235838 58 248 1.0 2.0 0.00 0.06 0.00 86 1012.6
20260505235834 56 115 1.0 2.0 0.00 0.29 0.00 95 1012.4
20260505235830 55 203 0.0 3.0 0.00 0.14 0.00 94 1011.0
20260505235827 58 288 2.0 2.0 0.00 2.48 0.00 95 1009.6
20260505235822 53 188 0.0 0.0 0.00 0.19 0.00 94 1011.2
20260505235812 61 187 0.0 0.0 0.00 0.00 0.00 72 1012.7
20260505235344 58 250 1.0 1.0 0.00 0.06 0.00 87 1012.6
20260505235341 62 148 4.0 9.0 0.00 0.00 0.00 84 1011.8
20260505235336 51 294 1.0 3.0 0.00 0.34 0.00 88 1008.1
20260505235334 56 115 0.0 2.0 0.00 0.29 0.00 95 1012.6
20260505235319 53 188 0.0 0.0 0.00 0.19 0.00 94 1011.1
20260505235315 61 165 0.0 3.0 0.00 0.00 0.00 71 1012.8
20260505235312 58 192 2.0 3.0 0.00 0.09 0.00 90 1011.8
20260505234852 58 118 0.0 0.0 0.41 2.77 0.00 94 1009.9
20260505234847 62 138 6.0 7.0 0.00 0.00 0.00 84 1011.9
20260505234841 58 250 0.0 2.0 0.00 0.06 0.00 87 1012.6
20260505234836 55 203 0.0 0.0 0.00 0.14 0.00 93 1011.0
20260505234832 56 115 0.0 2.0 0.00 0.29 0.00 95 1012.6
20260505234828 58 19 1.0 2.0 0.00 2.48 0.00 95 1009.6
20260505234819 53 188 0.0 0.0 0.00 0.19 0.00 94 1011.2
20260505234815 61 138 2.0 3.0 0.00 0.00 0.00 71 1012.9
20260505234812 58 192 2.0 3.0 0.00 0.09 0.00 90 1011.8
20260505234347 62 167 4.0 7.0 0.00 0.00 0.00 84 1011.9
20260505234341 51 294 1.0 3.0 0.00 0.34 0.00 88 1008.1
20260505234338 58 249 2.0 2.0 0.00 0.06 0.00 87 1012.7
20260505234331 55 115 1.0 1.0 0.00 0.29 0.00 95 1012.4
20260505234328 53 188 0.0 1.0 0.00 0.19 0.00 94 1011.2
20260505234315 61 145 2.0 3.0 0.00 0.00 0.00 72 1012.8
20260505234312 58 192 3.0 2.0 0.00 0.09 0.00 90 1011.8
20260505233847 62 169 4.0 9.0 0.00 0.00 0.00 84 1011.9
20260505233832 51 294 2.0 3.0 0.00 0.34 0.00 88 1008.1
20260505233830 56 203 0.0 1.0 0.00 0.14 0.00 93 1011.2
20260505233822 53 188 0.0 2.0 0.00 0.19 0.00 94 1011.1
20260505233815 58 191 0.0 1.0 0.00 0.09 0.00 89 1011.8
20260505233812 62 141 2.0 4.0 0.00 0.00 0.00 72 1012.9
20260505233342 62 170 4.0 9.0 0.00 0.00 0.00 84 1012.0
20260505233340 58 249 0.0 0.0 0.00 0.06 0.00 87 1012.9
20260505233338 51 294 2.0 4.0 0.00 0.34 0.00 88 1008.1
20260505233334 56 115 0.0 2.0 0.00 0.29 0.00 95 1012.5
20260505233330 56 203 0.0 0.0 0.00 0.14 0.00 93 1011.2
20260505233328 58 150 1.0 3.0 0.00 2.48 0.00 95 1009.8
20260505233325 53 138 0.0 0.0 0.00 0.19 0.00 94 1011.2
20260505233312 62 139 3.0 4.0 0.00 0.00 0.00 71 1012.9
20260505232844 62 146 5.0 7.0 0.00 0.00 0.00 84 1012.0
20260505232838 59 248 0.0 2.0 0.00 0.06 0.00 88 1013.0
20260505232834 56 203 0.0 1.0 0.00 0.14 0.00 94 1011.2
20260505232832 50 294 3.0 3.0 0.00 0.34 0.00 88 1008.0
20260505232822 53 131 0.0 0.0 0.00 0.19 0.00 94 1011.3
20260505232815 62 127 4.0 5.0 0.00 0.00 0.00 71 1012.9
20260505232812 58 209 1.0 3.0 0.00 0.09 0.00 90 1011.8
20260505232351 62 174 4.0 9.0 0.00 0.00 0.00 84 1012.1
20260505232341 59 249 1.0 4.0 0.00 0.06 0.00 88 1013.0
20260505232335 51 294 2.0 3.0 0.00 0.34 0.00 88 1008.0
20260505232331 53 131 0.0 0.0 0.00 0.19 0.00 94 1011.3
20260505232321 62 120 5.0 5.0 0.00 0.00 0.00 71 1012.9
20260505232312 58 209 2.0 4.0 0.00 0.09 0.00 90 1011.9
20260505231845 59 118 0.0 0.0 0.14 2.50 0.00 93 1010.0
20260505231841 58 249 3.0 3.0 0.00 0.06 0.00 88 1013.1
20260505231838 51 294 3.0 3.0 0.00 0.34 0.00 88 1008.0
20260505231834 56 82 1.0 3.0 0.00 0.29 0.00 95 1012.7
20260505231830 58 104 2.0 2.0 0.00 2.48 0.00 95 1010.1
20260505231821 53 131 0.0 1.0 0.00 0.19 0.00 94 1011.4
20260505231818 62 128 4.0 5.0 0.00 0.00 0.00 72 1012.9
20260505231813 58 167 0.0 3.0 0.00 0.09 0.00 90 1012.0
20260505231341 59 248 1.0 2.0 0.00 0.06 0.00 88 1013.0
20260505231333 51 294 2.0 4.0 0.00 0.34 0.00 88 1008.0
20260505231331 56 82 0.0 2.0 0.00 0.29 0.00 95 1012.8
20260505231325 53 131 1.0 1.0 0.00 0.19 0.00 94 1011.4
20260505231312 61 121 4.0 4.0 0.00 0.00 0.00 71 1013.0
20260505230847 62 167 1.0 8.0 0.00 0.00 0.00 84 1012.2
20260505230840 59 249 0.0 1.0 0.00 0.06 0.00 88 1012.9
20260505230837 55 82 0.0 1.0 0.00 0.29 0.00 95 1012.8
20260505230832 51 294 3.0 3.0 0.00 0.34 0.00 88 1008.1
20260505230819 53 131 0.0 0.0 0.00 0.19 0.00 94 1011.5
20260505230815 61 102 0.0 4.0 0.00 0.00 0.00 70 1013.0
20260505230812 58 166 1.0 3.0 0.00 0.09 0.00 89 1012.0
20260505230345 61 118 0.0 0.0 0.13 2.48 0.00 94 1010.2
20260505230341 62 159 4.0 8.0 0.00 0.00 0.00 84 1012.2
20260505230338 59 249 0.0 1.0 0.00 0.06 0.00 88 1012.9
20260505230335 51 294 2.0 4.0 0.00 0.34 0.00 88 1008.1
20260505230330 56 203 0.0 0.0 0.00 0.14 0.00 94 1011.2
20260505230327 58 90 1.0 2.0 0.03 2.48 0.00 95 1010.2
20260505230325 53 131 0.0 0.0 0.00 0.19 0.00 94 1011.6
20260505230318 58 161 0.0 4.0 0.00 0.09 0.00 90 1012.1
20260505230315 61 96 0.0 0.0 0.00 0.00 0.00 70 1013.0
20260505225842 62 161 2.0 6.0 0.00 0.00 0.00 84 1012.3
20260505225838 59 250 0.0 1.0 0.00 0.06 0.00 88 1013.0
20260505225836 56 203 0.0 0.0 0.00 0.14 0.00 94 1011.3
20260505225831 58 126 2.0 4.0 0.03 2.48 0.00 95 1010.2
20260505225819 54 130 0.0 0.0 0.00 0.19 0.00 94 1011.5
20260505225812 58 215 0.0 3.0 0.00 0.09 0.00 90 1012.1
20260505225344 62 123 2.0 7.0 0.00 0.00 0.00 84 1012.2
20260505225338 59 249 0.0 0.0 0.00 0.06 0.00 88 1013.0
20260505225336 56 203 0.0 0.0 0.00 0.14 0.00 94 1011.3
20260505225334 55 81 0.0 1.0 0.00 0.29 0.00 95 1012.8
20260505225332 51 295 2.0 4.0 0.00 0.34 0.00 88 1008.3
20260505225328 58 66 1.0 5.0 0.03 2.48 0.00 95 1010.2
20260505225321 58 187 2.0 4.0 0.00 0.09 0.00 90 1012.0
20260505225316 61 92 0.0 0.0 0.00 0.00 0.00 72 1013.1
20260505224845 62 118 0.0 0.0 0.02 2.37 0.00 94 1010.7
20260505224838 51 294 2.0 3.0 0.00 0.34 0.00 88 1008.3
20260505224833 56 203 0.0 0.0 0.00 0.14 0.00 94 1011.3
20260505224831 59 133 3.0 4.0 0.04 2.48 0.00 95 1010.2
20260505224819 61 89 0.0 0.0 0.00 0.00 0.00 72 1013.1
20260505224812 58 184 2.0 4.0 0.00 0.09 0.00 90 1012.0
20260505224341 62 154 3.0 7.0 0.00 0.00 0.00 83 1012.3
20260505224337 55 81 0.0 1.0 0.00 0.29 0.00 94 1012.8
20260505224335 51 295 3.0 3.0 0.00 0.34 0.00 88 1008.3
20260505224330 56 203 0.0 0.0 0.00 0.14 0.00 94 1011.3
20260505224328 58 228 0.0 3.0 0.04 2.48 0.00 95 1010.1
20260505224322 54 130 0.0 0.0 0.00 0.19 0.00 94 1011.6
20260505224312 58 192 0.0 3.0 0.00 0.09 0.00 90 1012.0
20260505223841 62 192 2.0 6.0 0.00 0.00 0.00 83 1012.4
20260505223834 55 81 0.0 2.0 0.00 0.29 0.00 94 1012.8
20260505223830 56 203 0.0 0.0 0.00 0.14 0.00 94 1011.4
20260505223828 59 269 0.0 3.0 0.04 2.48 0.00 95 1010.1
20260505223819 53 130 0.0 0.0 0.00 0.19 0.00 94 1011.7
20260505223812 61 120 0.0 0.0 0.00 0.00 0.00 71 1013.3
20260505223345 62 91 0.0 0.0 0.00 2.35 0.00 94 1010.3
20260505223341 62 200 4.0 9.0 0.00 0.00 0.00 83 1012.5
20260505223338 59 250 0.0 0.0 0.00 0.06 0.00 88 1013.2
20260505223334 58 26 1.0 2.0 0.04 2.48 0.00 95 1010.1
20260505223330 56 203 0.0 0.0 0.00 0.14 0.00 94 1011.5
20260505223319 53 130 0.0 0.0 0.00 0.19 0.00 94 1011.7
20260505223313 61 132 0.0 3.0 0.00 0.00 0.00 71 1013.3
20260505222844 62 193 2.0 7.0 0.00 0.00 0.00 83 1012.4
20260505222838 59 250 0.0 1.0 0.00 0.06 0.00 88 1013.3
20260505222834 56 81 0.0 2.0 0.00 0.29 0.00 94 1012.7
20260505222832 51 295 2.0 4.0 0.00 0.34 0.00 88 1008.4
20260505222830 56 203 0.0 2.0 0.00 0.14 0.00 94 1011.6
20260505222828 58 24 2.0 3.0 0.04 2.48 0.00 95 1010.1
20260505222819 53 130 0.0 0.0 0.00 0.19 0.00 94 1011.7
20260505222816 61 121 3.0 4.0 0.00 0.00 0.00 72 1013.4
20260505222812 57 192 3.0 3.0 0.00 0.09 0.00 89 1012.1
20260505222344 62 167 3.0 10.0 0.00 0.00 0.00 83 1012.5
20260505222338 59 248 0.0 1.0 0.00 0.06 0.00 88 1013.3
20260505222333 56 203 1.0 2.0 0.00 0.14 0.00 94 1011.6
20260505222331 56 81 1.0 2.0 0.00 0.29 0.00 94 1012.7
20260505222328 58 245 0.0 5.0 0.04 2.48 0.00 95 1010.1
20260505222322 53 130 0.0 0.0 0.00 0.19 0.00 94 1011.6
20260505222316 61 133 3.0 4.0 0.00 0.00 0.00 74 1013.4
20260505221853 62 91 0.0 0.0 0.00 2.35 0.00 94 1010.4
20260505221841 62 192 6.0 8.0 0.00 0.00 0.00 83 1012.6
20260505221838 59 248 0.0 2.0 0.00 0.06 0.00 88 1013.3
20260505221836 51 295 4.0 4.0 0.00 0.34 0.00 88 1008.5
20260505221830 56 203 0.0 0.0 0.00 0.14 0.00 94 1011.5
20260505221825 53 121 0.0 0.0 0.00 0.19 0.00 94 1011.7
20260505221813 60 117 0.0 0.0 0.00 0.00 0.00 75 1013.4
20260505221347 62 211 4.0 10.0 0.00 0.00 0.00 83 1012.7
20260505221345 59 250 2.0 5.0 0.00 0.06 0.00 88 1013.3
20260505221336 51 296 2.0 3.0 0.00 0.34 0.00 88 1008.5
20260505221334 56 75 3.0 4.0 0.00 0.29 0.00 94 1012.7
20260505221331 58 234 1.0 2.0 0.04 2.48 0.00 95 1010.1
20260505221322 53 121 0.0 0.0 0.00 0.19 0.00 94 1011.7
20260505221318 57 194 0.0 2.0 0.00 0.09 0.00 89 1012.2
20260505221313 60 120 0.0 0.0 0.00 0.00 0.00 76 1013.5
20260505220845 62 189 6.0 9.0 0.00 0.00 0.00 83 1012.8
20260505220841 59 248 5.0 4.0 0.00 0.06 0.00 88 1013.4
20260505220836 51 296 1.0 4.0 0.00 0.34 0.00 88 1008.5
20260505220831 56 70 3.0 4.0 0.00 0.29 0.00 94 1012.6
20260505220828 58 234 2.0 3.0 0.04 2.46 0.00 95 1010.1
20260505220820 53 121 0.0 0.0 0.00 0.19 0.00 94 1011.7
20260505220816 59 155 0.0 0.0 0.00 0.00 0.00 78 1013.5
20260505220812 58 194 0.0 1.0 0.00 0.09 0.00 89 1012.1
20260505220401 59 249 1.0 3.0 0.00 0.06 0.00 87 1013.4
20260505220344 62 202 4.0 9.0 0.00 0.00 0.00 83 1012.7
20260505220342 62 91 0.0 0.0 0.00 2.35 0.00 94 1010.5
20260505220333 51 296 4.0 4.0 0.00 0.34 0.00 88 1008.4
20260505220331 56 68 2.0 3.0 0.00 0.29 0.00 94 1012.8
20260505220328 58 252 0.0 3.0 0.15 2.45 0.00 94 1010.1
20260505220322 53 121 0.0 0.0 0.00 0.19 0.00 94 1011.7
20260505220316 59 155 0.0 0.0 0.00 0.00 0.00 78 1013.5
20260505220312 57 194 0.0 1.0 0.00 0.09 0.00 90 1012.1
20260505215844 62 186 5.0 8.0 0.00 0.00 0.00 82 1012.7
20260505215841 60 249 2.0 4.0 0.00 0.06 0.00 87 1013.2
20260505215835 58 249 2.0 4.0 0.22 2.45 0.00 94 1010.3
20260505215833 51 296 2.0 4.0 0.00 0.34 0.00 88 1008.5
20260505215831 56 67 1.0 2.0 0.00 0.29 0.00 94 1012.8
20260505215819 53 121 0.0 0.0 0.00 0.19 0.00 94 1011.6
20260505215813 57 194 1.0 3.0 0.00 0.09 0.00 89 1012.2
20260505215344 62 217 3.0 11.0 0.00 0.00 0.00 82 1012.8
20260505215342 60 249 3.0 5.0 0.00 0.06 0.00 87 1013.4
20260505215336 51 296 3.0 3.0 0.00 0.34 0.00 88 1008.5
20260505215334 58 251 3.0 4.0 0.27 2.45 0.00 94 1010.3
20260505215331 56 66 1.0 2.0 0.00 0.29 0.00 94 1012.8
20260505215328 53 121 0.0 0.0 0.00 0.19 0.00 94 1011.6
20260505215313 59 155 0.0 0.0 0.00 0.00 0.00 78 1013.5
20260505214846 60 249 4.0 5.0 0.00 0.06 0.00 87 1013.5
20260505214842 62 91 0.0 0.0 0.00 2.35 0.00 94 1010.6
20260505214834 56 66 1.0 3.0 0.00 0.29 0.00 94 1013.0
20260505214830 56 203 0.0 0.0 0.00 0.14 0.00 94 1011.6
20260505214828 58 247 0.0 2.0 0.38 2.44 0.00 95 1010.3
20260505214822 53 121 0.0 0.0 0.00 0.19 0.00 94 1011.7
20260505214816 60 155 0.0 0.0 0.00 0.00 0.00 77 1013.5
20260505214812 57 111 2.0 2.0 0.00 0.09 0.00 89 1012.2
20260505214347 63 191 2.0 8.0 0.00 0.00 0.00 82 1012.7
20260505214341 60 249 4.0 4.0 0.00 0.06 0.00 86 1013.5
20260505214339 51 297 3.0 3.0 0.00 0.34 0.00 88 1008.6
20260505214333 56 203 0.0 0.0 0.00 0.14 0.00 94 1011.7
20260505214331 58 246 0.0 3.0 0.58 2.44 0.00 94 1010.8
20260505214322 53 139 0.0 0.0 0.00 0.19 0.00 94 1011.7
20260505214315 57 111 0.0 2.0 0.00 0.09 0.00 89 1012.2
20260505214313 60 154 0.0 0.0 0.00 0.00 0.00 77 1013.5
20260505213842 63 190 3.0 9.0 0.00 0.00 0.00 82 1012.8
20260505213838 60 249 3.0 3.0 0.00 0.06 0.00 86 1013.6
20260505213836 55 203 0.0 0.0 0.00 0.14 0.00 94 1011.7
20260505213831 56 66 0.0 2.0 0.00 0.29 0.00 94 1013.1
20260505213828 58 252 0.0 2.0 0.71 2.44 0.00 94 1010.8
20260505213819 53 146 0.0 0.0 0.00 0.19 0.00 94 1011.7
20260505213813 60 141 0.0 0.0 0.00 0.00 0.00 77 1013.5
20260505213342 62 91 0.0 0.0 0.00 2.35 0.00 94 1010.9
20260505213340 60 249 1.0 3.0 0.00 0.06 0.00 85 1013.7
20260505213337 56 66 2.0 3.0 0.00 0.29 0.00 94 1013.2
20260505213333 51 297 2.0 3.0 0.00 0.34 0.00 88 1008.7
20260505213331 58 247 0.0 3.0 0.78 2.44 0.00 94 1010.8
20260505213322 53 148 0.0 0.0 0.00 0.19 0.00 94 1011.8
20260505213313 60 141 0.0 0.0 0.00 0.00 0.00 76 1013.6
20260505212850 63 197 7.0 8.0 0.00 0.00 0.00 81 1012.8
20260505212844 60 249 0.0 2.0 0.00 0.06 0.00 85 1013.8
20260505212836 55 203 0.0 0.0 0.00 0.14 0.00 93 1011.8
20260505212833 51 297 2.0 3.0 0.00 0.34 0.00 88 1008.7
20260505212831 56 67 2.0 4.0 0.00 0.29 0.00 94 1013.1
20260505212828 58 286 2.0 3.0 0.86 2.44 0.00 94 1010.8
20260505212820 53 149 0.0 0.0 0.00 0.19 0.00 94 1011.9
20260505212818 57 83 0.0 3.0 0.00 0.09 0.00 89 1012.3
20260505212813 60 86 0.0 0.0 0.00 0.00 0.00 77 1013.6
20260505212344 63 178 4.0 9.0 0.00 0.00 0.00 81 1012.8
20260505212338 60 249 0.0 2.0 0.00 0.06 0.00 85 1013.8
20260505212335 59 67 1.0 4.0 0.90 2.44 0.00 94 1010.8
20260505212333 51 297 3.0 3.0 0.00 0.34 0.00 88 1008.8
20260505212330 55 203 0.0 0.0 0.00 0.14 0.00 93 1011.8
20260505212322 54 149 0.0 0.0 0.00 0.19 0.00 94 1011.8
20260505212318 57 83 3.0 4.0 0.00 0.09 0.00 89 1012.4
20260505212313 60 75 0.0 0.0 0.00 0.00 0.00 78 1013.7
20260505211850 63 214 5.0 9.0 0.00 0.00 0.00 81 1012.8
20260505211847 63 120 0.0 0.0 0.00 2.34 0.00 94 1011.0
20260505211844 60 249 1.0 3.0 0.00 0.06 0.00 84 1013.7
20260505211839 51 297 3.0 3.0 0.00 0.34 0.00 88 1008.8
20260505211834 56 83 1.0 3.0 0.00 0.29 0.00 94 1013.2
20260505211830 56 203 0.0 0.0 0.00 0.14 0.00 93 1011.8
20260505211828 59 242 1.0 3.0 0.93 2.44 0.00 94 1010.8
20260505211819 54 149 0.0 0.0 0.00 0.19 0.00 93 1011.8
20260505211813 60 51 0.0 0.0 0.00 0.00 0.00 81 1013.7
20260505211341 63 205 4.0 8.0 0.00 0.00 0.00 81 1012.8
20260505211339 51 297 2.0 3.0 0.00 0.34 0.00 88 1008.8
20260505211333 56 203 0.0 0.0 0.00 0.14 0.00 93 1011.8
20260505211331 56 84 3.0 5.0 0.00 0.29 0.00 94 1013.4
20260505211328 59 234 3.0 6.0 0.96 2.44 0.00 94 1010.9
20260505211319 54 148 0.0 0.0 0.00 0.19 0.00 93 1011.8
20260505211316 60 25 0.0 0.0 0.00 0.00 0.00 82 1013.7
20260505210841 59 249 0.0 1.0 0.00 0.06 0.00 82 1013.8
20260505210834 56 67 1.0 5.0 0.00 0.29 0.00 93 1013.4
20260505210831 59 36 5.0 7.0 0.94 2.42 0.00 95 1010.9
20260505210822 54 148 0.0 0.0 0.00 0.19 0.00 93 1011.8
20260505210813 59 11 0.0 0.0 0.00 0.00 0.00 82 1013.8
20260505210347 63 119 0.0 0.0 0.00 2.34 0.00 94 1011.0
20260505210341 63 193 2.0 9.0 0.00 0.00 0.00 80 1012.8
20260505210338 59 249 1.0 1.0 0.00 0.06 0.00 82 1013.7
20260505210330 56 203 0.0 0.0 0.00 0.14 0.00 93 1011.9
20260505210319 54 148 0.0 0.0 0.00 0.19 0.00 93 1011.9
20260505210316 59 11 0.0 0.0 0.00 0.00 0.00 83 1013.8
20260505210312 58 206 0.0 2.0 0.00 0.09 0.00 88 1012.5
20260505205843 51 297 2.0 3.0 0.00 0.34 0.00 88 1008.9
20260505205841 59 249 0.0 1.0 0.00 0.06 0.00 82 1013.7
20260505205834 57 86 3.0 4.0 0.00 0.29 0.00 93 1013.4
20260505205830 56 203 0.0 0.0 0.00 0.14 0.00 93 1011.8
20260505205819 54 148 0.0 0.0 0.00 0.19 0.00 93 1012.0
20260505205813 59 328 0.0 0.0 0.00 0.00 0.00 84 1013.7
20260505205344 63 205 8.0 8.0 0.00 0.00 0.00 80 1013.0
20260505205338 59 249 0.0 0.0 0.00 0.06 0.00 81 1013.7
20260505205334 57 105 2.0 6.0 0.00 0.29 0.00 93 1013.4
20260505205328 59 40 1.0 3.0 0.70 2.18 0.00 94 1010.8
20260505205319 54 148 0.0 0.0 0.00 0.19 0.00 93 1012.0
20260505205313 59 330 0.0 0.0 0.00 0.00 0.00 84 1013.7
20260505204842 63 119 0.0 0.0 0.00 2.34 0.00 94 1011.1
20260505204838 60 249 0.0 2.0 0.00 0.06 0.00 81 1013.7
20260505204835 59 284 2.0 4.0 0.58 2.06 0.00 94 1010.8
20260505204833 50 297 2.0 3.0 0.00 0.34 0.00 88 1008.9
20260505204831 57 105 2.0 8.0 0.00 0.29 0.00 93 1013.3
20260505204823 54 148 0.0 0.0 0.00 0.19 0.00 93 1011.9
20260505204816 59 335 0.0 4.0 0.00 0.00 0.00 83 1013.6
20260505204350 63 193 5.0 7.0 0.00 0.00 0.00 79 1012.9
20260505204344 60 249 1.0 2.0 0.00 0.06 0.00 81 1013.7
20260505204339 56 203 0.0 0.0 0.00 0.14 0.00 93 1011.9
20260505204334 57 83 2.0 5.0 0.00 0.29 0.00 93 1013.3
20260505204328 54 149 0.0 0.0 0.00 0.19 0.00 93 1012.0
20260505204319 59 322 3.0 4.0 0.00 0.00 0.00 84 1013.6
20260505203841 60 249 0.0 2.0 0.00 0.06 0.00 80 1013.8
20260505203834 57 96 2.0 4.0 0.00 0.29 0.00 93 1013.4
20260505203830 56 203 0.0 0.0 0.00 0.14 0.00 93 1011.8
20260505203819 54 149 0.0 0.0 0.00 0.19 0.00 93 1012.0
20260505203813 58 6 0.0 0.0 0.00 0.00 0.00 84 1013.7
20260505203342 63 119 0.0 0.0 0.00 2.34 0.00 93 1011.2
20260505203334 50 298 2.0 3.0 0.00 0.34 0.00 88 1008.8
20260505203331 57 110 2.0 6.0 0.00 0.29 0.00 93 1013.3
20260505203322 54 149 0.0 0.0 0.00 0.19 0.00 93 1012.0
20260505203313 58 332 0.0 4.0 0.00 0.00 0.00 84 1013.9
20260505202843 60 249 2.0 2.0 0.00 0.06 0.00 78 1013.7
20260505202837 57 61 3.0 7.0 0.00 0.29 0.00 92 1013.3
20260505202830 56 203 0.0 0.0 0.00 0.14 0.00 93 1011.8
20260505202828 59 59 1.0 1.0 0.16 1.58 0.00 94 1010.4
20260505202822 54 149 0.0 0.0 0.00 0.19 0.00 93 1012.0
20260505202819 58 18 0.0 1.0 0.00 0.00 0.00 84 1014.0
20260505202812 58 142 1.0 1.0 0.00 0.09 0.00 87 1012.4
20260505202341 63 179 7.0 10.0 0.00 0.00 0.00 78 1012.9
20260505202338 60 249 0.0 5.0 0.00 0.06 0.00 79 1013.7
20260505202334 50 298 2.0 3.0 0.00 0.34 0.00 88 1008.7
20260505202331 59 59 0.0 3.0 0.13 1.54 0.00 94 1010.4
20260505202325 54 149 0.0 0.0 0.00 0.19 0.00 93 1012.0
20260505202319 58 333 0.0 0.0 0.00 0.00 0.00 83 1014.0
20260505202312 58 142 0.0 2.0 0.00 0.09 0.00 87 1012.6
20260505201842 63 119 0.0 0.0 0.00 2.34 0.00 93 1011.3
20260505201839 50 298 2.0 3.0 0.00 0.34 0.00 88 1008.7
20260505201831 58 75 7.0 7.0 0.00 0.29 0.00 92 1013.3
20260505201828 59 59 1.0 2.0 0.11 1.51 0.00 94 1010.4
20260505201820 54 149 0.0 0.0 0.00 0.19 0.00 93 1012.2
20260505201815 58 142 1.0 2.0 0.00 0.09 0.00 87 1012.6
20260505201813 59 306 0.0 1.0 0.00 0.00 0.00 82 1013.9
20260505201344 63 231 2.0 9.0 0.00 0.00 0.00 77 1013.0
20260505201339 60 249 3.0 5.0 0.00 0.06 0.00 81 1013.8
20260505201334 58 107 6.0 8.0 0.00 0.29 0.00 92 1013.2
20260505201313 59 351 0.0 1.0 0.00 0.00 0.00 82 1013.9
20260505200844 60 249 3.0 4.0 0.00 0.06 0.00 82 1013.8
20260505200840 58 117 2.0 6.0 0.00 0.29 0.00 92 1013.2
20260505200836 50 300 2.0 3.0 0.00 0.34 0.00 87 1008.8
20260505200819 59 36 0.0 0.0 0.00 0.00 0.00 82 1014.0
20260505200812 58 142 1.0 2.0 0.00 0.09 0.00 87 1012.6
20260505200345 64 119 0.0 1.0 0.00 2.34 0.00 93 1011.2
20260505200341 60 249 3.0 3.0 0.00 0.06 0.00 82 1013.9
20260505200339 51 321 1.0 2.0 0.00 0.34 0.00 87 1008.7
20260505200337 58 87 3.0 4.0 0.00 0.29 0.00 92 1013.3
20260505200333 57 203 1.0 2.0 0.00 0.14 0.00 93 1011.8
20260505200321 58 142 2.0 3.0 0.00 0.09 0.00 87 1012.7
20260505200319 54 149 0.0 0.0 0.00 0.19 0.00 93 1012.0
20260505200313 59 29 0.0 0.0 0.00 0.00 0.00 83 1014.0
20260505195842 64 194 3.0 9.0 0.00 0.00 0.00 75 1013.1
20260505195839 59 133 2.0 3.0 0.08 1.48 0.00 94 1010.1
20260505195833 51 321 1.0 1.0 0.00 0.34 0.00 87 1008.7
20260505195831 58 74 2.0 5.0 0.00 0.29 0.00 91 1013.2
20260505195819 58 43 0.0 0.0 0.00 0.00 0.00 83 1013.9
20260505195815 58 142 3.0 3.0 0.00 0.09 0.00 87 1012.6
20260505195341 61 249 3.0 9.0 0.00 0.06 0.00 79 1013.9
20260505195339 57 203 1.0 2.0 0.00 0.14 0.00 93 1011.8
20260505195337 51 321 0.0 3.0 0.00 0.34 0.00 87 1008.7
20260505195331 59 89 3.0 6.0 0.00 0.29 0.00 91 1013.2
20260505195325 54 149 0.0 0.0 0.00 0.19 0.00 93 1011.9
20260505195322 58 30 0.0 0.0 0.00 0.00 0.00 83 1013.8
20260505195315 58 142 0.0 0.0 0.00 0.09 0.00 87 1012.4
20260505194845 64 201 2.0 8.0 0.00 0.00 0.00 74 1012.9
20260505194842 64 175 0.0 0.0 0.06 2.34 0.00 93 1011.2
20260505194838 60 261 6.0 9.0 0.00 0.06 0.00 79 1013.9
20260505194833 57 203 0.0 1.0 0.00 0.14 0.00 92 1011.8
20260505194831 59 59 5.0 5.0 0.00 0.29 0.00 91 1013.3
20260505194819 54 149 0.0 2.0 0.00 0.19 0.00 93 1011.8
20260505194815 58 195 0.0 0.0 0.00 0.09 0.00 87 1012.4
20260505194813 58 141 0.0 0.0 0.00 0.00 0.00 84 1013.8
20260505194344 60 263 7.0 8.0 0.00 0.06 0.00 79 1013.8
20260505194341 64 207 5.0 6.0 0.00 0.00 0.00 73 1012.9
20260505194336 51 325 3.0 5.0 0.00 0.34 0.00 87 1008.7
20260505194331 59 76 2.0 5.0 0.00 0.29 0.00 91 1013.1
20260505194325 54 149 1.0 2.0 0.00 0.19 0.00 93 1012.0
20260505194316 58 141 0.0 0.0 0.00 0.00 0.00 84 1013.9
20260505193848 64 174 4.0 8.0 0.00 0.00 0.00 73 1012.9
20260505193838 60 176 2.0 3.0 0.00 0.06 0.00 82 1013.7
20260505193833 52 319 3.0 5.0 0.00 0.34 0.00 87 1008.8
20260505193831 59 71 2.0 6.0 0.00 0.29 0.00 91 1013.0
20260505193824 54 150 0.0 1.0 0.00 0.19 0.00 93 1012.0
20260505193819 58 141 0.0 0.0 0.00 0.00 0.00 84 1013.8
20260505193344 59 177 1.0 5.0 0.00 0.06 0.00 83 1013.6
20260505193342 64 151 0.0 0.0 0.07 2.34 0.00 92 1011.1
20260505193334 59 57 5.0 8.0 0.00 0.29 0.00 90 1013.1
20260505193330 57 203 0.0 1.0 0.00 0.14 0.00 92 1011.8
20260505193319 54 150 0.0 2.0 0.00 0.19 0.00 93 1012.0
20260505193313 58 141 0.0 0.0 0.00 0.00 0.00 83 1013.7
20260505192843 59 109 1.0 5.0 0.00 0.29 0.00 90 1013.1
20260505192838 59 152 3.0 3.0 0.00 0.06 0.00 84 1013.6
20260505192836 57 203 0.0 1.0 0.00 0.14 0.00 92 1011.8
20260505192833 52 329 2.0 4.0 0.00 0.34 0.00 87 1008.8
20260505192822 54 150 0.0 0.0 0.00 0.19 0.00 92 1012.0
20260505192813 59 141 0.0 0.0 0.00 0.00 0.00 83 1013.6
20260505192344 64 193 4.0 8.0 0.00 0.00 0.00 71 1012.8
20260505192339 59 107 0.0 0.0 0.00 0.06 0.00 84 1013.5
20260505192336 52 325 1.0 4.0 0.00 0.34 0.00 87 1008.8
20260505192334 59 57 0.0 4.0 0.00 0.29 0.00 90 1012.9
20260505192331 59 197 0.0 2.0 0.02 1.41 0.00 93 1009.9
20260505192319 54 150 0.0 0.0 0.00 0.19 0.00 92 1011.8
20260505192312 58 195 0.0 1.0 0.00 0.09 0.00 88 1012.3
20260505191842 64 279 0.0 0.0 0.07 2.34 0.00 92 1011.0
20260505191834 52 0 1.0 4.0 0.00 0.34 0.00 87 1008.8
20260505191831 59 55 1.0 4.0 0.00 0.29 0.00 90 1012.9
20260505191828 59 197 0.0 1.0 0.01 1.40 0.00 93 1009.9
20260505191823 54 150 0.0 0.0 0.01 0.19 0.00 93 1011.9
20260505191813 59 141 0.0 0.0 0.00 0.00 0.00 82 1013.7
20260505191345 64 207 3.0 8.0 0.00 0.00 0.00 70 1012.7
20260505191343 52 321 2.0 3.0 0.00 0.34 0.00 87 1008.8
20260505191339 58 203 0.0 0.0 0.00 0.14 0.00 92 1011.7
20260505191335 59 198 1.0 1.0 0.00 1.39 0.00 93 1009.7
20260505191331 60 60 1.0 4.0 0.00 0.29 0.00 89 1012.9
20260505191322 54 150 0.0 0.0 0.02 0.19 0.00 93 1011.8
20260505191319 59 16 0.0 0.0 0.00 0.00 0.00 81 1013.6
20260505191315 58 195 1.0 2.0 0.00 0.09 0.00 88 1012.2
20260505190843 51 320 0.0 3.0 0.00 0.34 0.00 87 1008.7
20260505190841 65 195 4.0 7.0 0.00 0.00 0.00 70 1012.8
20260505190838 60 107 0.0 0.0 0.00 0.06 0.00 83 1013.5
20260505190834 60 59 2.0 5.0 0.00 0.29 0.00 89 1012.7
20260505190831 59 198 0.0 2.0 0.00 1.39 0.00 92 1009.7
20260505190826 54 150 0.0 1.0 0.02 0.19 0.00 93 1011.8
20260505190818 58 195 0.0 2.0 0.00 0.09 0.00 88 1012.2
20260505190813 59 344 0.0 0.0 0.00 0.00 0.00 81 1013.5
20260505190347 60 107 0.0 0.0 0.00 0.06 0.00 83 1013.5
20260505190345 65 202 0.0 0.0 0.07 2.34 0.00 90 1010.8
20260505190334 60 198 1.0 2.0 0.00 1.39 0.00 92 1009.7
20260505190331 60 75 2.0 4.0 0.00 0.29 0.00 89 1012.7
20260505190319 54 150 0.0 1.0 0.02 0.19 0.00 93 1011.8
20260505190315 58 195 1.0 2.0 0.00 0.09 0.00 88 1012.2
20260505190313 59 312 0.0 4.0 0.00 0.00 0.00 80 1013.3
20260505185847 60 107 0.0 3.0 0.00 0.06 0.00 82 1013.5
20260505185844 65 204 2.0 7.0 0.00 0.00 0.00 69 1012.8
20260505185834 60 77 0.0 5.0 0.00 0.29 0.00 89 1012.7
20260505185831 60 161 1.0 2.0 0.00 1.39 0.00 92 1009.7
20260505185822 54 150 0.0 1.0 0.02 0.19 0.00 93 1011.8
20260505185815 58 195 1.0 2.0 0.00 0.09 0.00 88 1012.2
20260505185813 59 320 0.0 3.0 0.00 0.00 0.00 81 1013.2
20260505185341 65 186 5.0 7.0 0.00 0.00 0.00 69 1012.8
20260505185338 60 107 0.0 2.0 0.00 0.06 0.00 82 1013.5
20260505185334 51 268 2.0 3.0 0.00 0.34 0.00 87 1008.6
20260505185331 60 65 3.0 5.0 0.00 0.29 0.00 89 1012.7
20260505185325 54 150 0.0 0.0 0.02 0.19 0.00 93 1011.7
20260505185313 59 328 0.0 2.0 0.00 0.00 0.00 81 1013.1
20260505184842 65 270 0.0 0.0 0.00 2.28 0.00 89 1010.8
20260505184838 60 107 1.0 6.0 0.00 0.06 0.00 81 1013.3
20260505184836 58 203 0.0 0.0 0.00 0.14 0.00 92 1011.6
20260505184834 60 161 0.0 1.0 0.03 1.39 0.00 92 1009.7
20260505184822 54 150 0.0 0.0 0.03 0.19 0.00 93 1011.7
20260505184813 59 312 0.0 0.0 0.00 0.00 0.00 81 1013.2
20260505184347 60 107 2.0 2.0 0.00 0.06 0.00 81 1013.3
20260505184342 51 324 2.0 5.0 0.00 0.34 0.00 87 1008.6
20260505184334 61 63 1.0 7.0 0.00 0.29 0.00 88 1012.6
20260505184331 60 161 0.0 1.0 0.04 1.39 0.00 92 1009.6
20260505184319 54 150 0.0 1.0 0.03 0.19 0.00 93 1011.7
20260505184313 59 8 0.0 0.0 0.00 0.00 0.00 81 1013.2
20260505183844 60 107 1.0 2.0 0.00 0.06 0.00 81 1013.2
20260505183841 65 186 5.0 7.0 0.00 0.00 0.00 69 1012.5
20260505183834 61 88 2.0 9.0 0.00 0.29 0.00 88 1012.6
20260505183832 60 161 1.0 2.0 0.04 1.39 0.00 92 1009.6
20260505183830 58 203 0.0 0.0 0.00 0.14 0.00 92 1011.6
20260505183824 54 149 0.0 1.0 0.03 0.19 0.00 92 1011.6
20260505183819 59 30 0.0 3.0 0.00 0.00 0.00 81 1013.3
20260505183347 59 107 0.0 2.0 0.00 0.06 0.00 81 1013.3
20260505183345 65 317 0.0 0.0 0.00 2.27 0.00 88 1010.8
20260505183342 65 204 3.0 9.0 0.00 0.00 0.00 70 1012.4
20260505183337 60 162 0.0 1.0 0.04 1.39 0.00 92 1009.6
20260505183331 61 68 0.0 5.0 0.00 0.29 0.00 87 1012.6
20260505183326 59 53 2.0 5.0 0.00 0.00 0.00 82 1013.2
20260505183323 55 149 1.0 2.0 0.03 0.19 0.00 92 1011.6
20260505183312 58 182 4.0 5.0 0.00 0.09 0.00 88 1012.0
20260505182841 59 107 1.0 4.0 0.00 0.06 0.00 82 1013.3
20260505182837 61 64 3.0 5.0 0.00 0.29 0.00 87 1012.6
20260505182834 60 161 0.0 1.0 0.04 1.39 0.00 92 1009.3
20260505182830 58 203 0.0 0.0 0.00 0.14 0.00 92 1011.4
20260505182821 58 201 3.0 4.0 0.00 0.09 0.00 88 1011.8
20260505182819 55 159 1.0 4.0 0.02 0.18 0.00 92 1011.5
20260505182815 59 36 4.0 5.0 0.00 0.00 0.00 81 1013.2
20260505182342 65 191 7.0 10.0 0.00 0.00 0.00 71 1012.4
20260505182339 52 323 2.0 3.0 0.00 0.34 0.00 88 1008.4
20260505182334 62 83 0.0 4.0 0.00 0.29 0.00 87 1012.6
20260505182328 60 162 0.0 0.0 0.07 1.39 0.00 92 1009.3
20260505182319 55 159 2.0 4.0 0.02 0.18 0.00 92 1011.5
20260505182317 59 25 4.0 5.0 0.00 0.00 0.00 81 1013.2
20260505182312 58 189 3.0 4.0 0.01 0.09 0.00 88 1011.8
20260505181847 66 201 7.0 9.0 0.00 0.00 0.00 71 1012.4
20260505181843 65 317 0.0 0.0 0.00 2.27 0.00 87 1010.8
20260505181840 60 67 0.0 6.0 0.00 0.06 0.00 83 1013.4
20260505181831 62 67 2.0 5.0 0.00 0.29 0.00 86 1012.4
20260505181828 60 162 0.0 0.0 0.07 1.39 0.00 91 1009.3
20260505181819 55 152 0.0 4.0 0.01 0.18 0.00 92 1011.4
20260505181815 58 182 1.0 3.0 0.01 0.09 0.00 88 1011.8
20260505181813 59 39 0.0 2.0 0.00 0.00 0.00 80 1013.2
20260505181345 66 175 4.0 10.0 0.00 0.00 0.00 72 1012.4
20260505181338 60 98 4.0 6.0 0.00 0.06 0.00 83 1013.4
20260505181334 61 162 0.0 2.0 0.07 1.39 0.00 91 1009.4
20260505181331 62 98 4.0 4.0 0.00 0.29 0.00 86 1012.4
20260505181321 58 124 1.0 5.0 0.01 0.09 0.00 88 1011.7
20260505181313 59 4 0.0 4.0 0.00 0.00 0.00 80 1013.3
20260505180844 66 172 4.0 10.0 0.00 0.00 0.00 71 1012.4
20260505180838 59 81 2.0 3.0 0.00 0.06 0.00 84 1013.4
20260505180835 52 336 1.0 4.0 0.00 0.34 0.00 88 1008.4
20260505180833 58 203 0.0 0.0 0.00 0.14 0.00 91 1011.2
20260505180831 62 63 4.0 6.0 0.00 0.29 0.00 85 1012.4
20260505180813 59 5 0.0 0.0 0.00 0.00 0.00 80 1013.3
20260505180344 66 202 3.0 10.0 0.00 0.00 0.00 71 1012.4
20260505180338 59 81 1.0 1.0 0.00 0.06 0.00 84 1013.4
20260505180334 62 48 5.0 6.0 0.00 0.29 0.00 85 1012.5
20260505180332 61 161 1.0 2.0 0.07 1.39 0.00 91 1009.4
20260505180330 58 203 0.0 0.0 0.00 0.14 0.00 91 1011.2
20260505180323 55 159 0.0 0.0 0.00 0.17 0.00 91 1011.3
20260505180319 60 53 0.0 0.0 0.00 0.00 0.00 79 1013.3
20260505180312 58 136 1.0 4.0 0.01 0.09 0.00 88 1011.6
20260505175844 66 181 6.0 11.0 0.00 0.00 0.00 71 1012.3
20260505175838 59 81 0.0 2.0 0.00 0.06 0.00 85 1013.4
20260505175833 52 331 1.0 3.0 0.00 0.34 0.00 88 1008.3
20260505175831 62 78 4.0 6.0 0.00 0.29 0.00 85 1012.4
20260505175828 61 157 1.0 2.0 0.07 1.39 0.00 91 1009.8
20260505175819 56 161 0.0 4.0 0.00 0.17 0.00 91 1011.4
20260505175815 58 72 2.0 9.0 0.01 0.09 0.00 88 1011.7
20260505175813 60 320 0.0 4.0 0.00 0.00 0.00 79 1013.3
20260505175348 66 188 4.0 12.0 0.00 0.00 0.00 70 1012.3
20260505175341 60 81 0.0 2.0 0.00 0.06 0.00 85 1013.4
20260505175336 56 158 0.0 0.0 0.00 0.17 0.00 90 1011.4
20260505175333 58 203 0.0 0.0 0.00 0.14 0.00 91 1011.2
20260505175331 62 80 4.0 8.0 0.00 0.29 0.00 85 1012.5
20260505175313 60 330 4.0 5.0 0.00 0.00 0.00 79 1013.3
20260505174846 66 316 0.0 0.0 0.00 2.27 0.00 85 1010.7
20260505174844 66 195 7.0 9.0 0.00 0.00 0.00 70 1012.4
20260505174839 52 311 2.0 5.0 0.00 0.34 0.00 88 1008.2
20260505174834 61 157 2.0 3.0 0.04 1.36 0.00 90 1009.8
20260505174831 63 67 5.0 6.0 0.00 0.29 0.00 85 1012.6
20260505174820 56 158 0.0 0.0 0.00 0.16 0.00 90 1011.4
20260505174816 60 320 0.0 4.0 0.00 0.00 0.00 79 1013.3
20260505174344 66 207 3.0 10.0 0.00 0.00 0.00 70 1012.3
20260505174338 60 81 4.0 5.0 0.00 0.06 0.00 84 1013.3
20260505174336 58 203 0.0 0.0 0.00 0.14 0.00 91 1011.2
20260505174328 61 48 1.0 2.0 0.02 1.34 0.00 90 1009.5
20260505174319 56 158 0.0 0.0 0.00 0.16 0.00 90 1011.3
20260505174315 59 123 4.0 9.0 0.02 0.09 0.00 87 1011.7
20260505174313 60 356 0.0 2.0 0.00 0.00 0.00 80 1013.3
20260505173844 66 203 6.0 10.0 0.00 0.00 0.00 70 1012.4
20260505173837 63 60 4.0 7.0 0.00 0.29 0.00 84 1012.3
20260505173833 58 203 0.0 0.0 0.00 0.14 0.00 91 1011.2
20260505173831 61 34 2.0 3.0 0.02 1.34 0.00 90 1009.5
20260505173820 56 158 0.0 1.0 0.00 0.16 0.00 90 1011.4
20260505173816 60 22 0.0 4.0 0.00 0.00 0.00 79 1013.3
20260505173812 59 178 6.0 11.0 0.01 0.08 0.00 87 1011.8
20260505173346 66 300 0.0 0.0 0.00 2.27 0.00 84 1010.7
20260505173341 66 169 8.0 10.0 0.00 0.00 0.00 69 1012.4
20260505173338 60 87 4.0 4.0 0.00 0.06 0.00 84 1013.3
20260505173333 52 323 3.0 5.0 0.00 0.34 0.00 88 1008.1
20260505173330 59 203 0.0 0.0 0.00 0.14 0.00 91 1011.2
20260505173322 56 161 0.0 4.0 0.00 0.16 0.00 90 1011.4
20260505173314 61 308 0.0 3.0 0.00 0.00 0.00 79 1013.4
20260505173312 59 146 4.0 8.0 0.01 0.08 0.00 86 1011.8
20260505172843 60 63 3.0 3.0 0.00 0.06 0.00 84 1013.4
20260505172841 66 180 3.0 10.0 0.00 0.00 0.00 69 1012.6
20260505172833 58 203 0.0 0.0 0.01 0.14 0.00 90 1011.3
20260505172831 63 67 4.0 10.0 0.00 0.29 0.00 83 1012.3
20260505172824 56 161 2.0 4.0 0.00 0.16 0.00 90 1011.4
20260505172816 61 319 0.0 4.0 0.00 0.00 0.00 79 1013.3
20260505172812 60 163 2.0 5.0 0.01 0.08 0.00 86 1011.9
20260505172341 60 63 2.0 4.0 0.00 0.06 0.00 84 1013.4
20260505172339 51 337 4.0 4.0 0.00 0.34 0.00 88 1008.1
20260505172337 63 61 11.0 11.0 0.00 0.29 0.00 83 1012.3
20260505172330 58 203 0.0 0.0 0.00 0.14 0.00 90 1011.2
20260505172325 56 148 0.0 0.0 0.00 0.16 0.00 89 1011.4
20260505172318 60 126 2.0 7.0 0.00 0.07 0.00 85 1011.8
20260505172314 61 334 2.0 5.0 0.00 0.00 0.00 79 1013.3
20260505171844 66 266 0.0 0.0 0.00 2.27 0.00 85 1010.7
20260505171841 66 213 6.0 11.0 0.00 0.00 0.00 69 1012.6
20260505171838 60 59 3.0 4.0 0.00 0.06 0.00 83 1013.5
20260505171836 51 324 3.0 5.0 0.00 0.34 0.00 88 1008.1
20260505171833 59 203 0.0 0.0 0.00 0.14 0.00 90 1011.3
20260505171831 64 78 4.0 13.0 0.00 0.29 0.00 83 1012.2
20260505171827 56 148 0.0 0.0 0.00 0.16 0.00 89 1011.4
20260505171814 61 342 3.0 6.0 0.00 0.00 0.00 78 1013.2
20260505171812 60 155 6.0 9.0 0.00 0.07 0.00 85 1011.8
20260505171341 61 59 3.0 6.0 0.00 0.06 0.00 82 1013.5
20260505171334 61 175 3.0 3.0 0.02 1.32 0.00 89 1009.5
20260505171331 64 61 4.0 11.0 0.00 0.29 0.00 83 1012.2
20260505171324 56 153 0.0 0.0 0.00 0.16 0.00 88 1011.3
20260505171317 62 4 3.0 5.0 0.00 0.00 0.00 78 1013.2
20260505171312 60 140 2.0 9.0 0.00 0.07 0.00 85 1011.7
20260505170842 67 216 4.0 13.0 0.00 0.00 0.00 67 1012.6
20260505170838 61 54 6.0 7.0 0.00 0.06 0.00 80 1013.4
20260505170834 64 65 4.0 9.0 0.00 0.29 0.00 83 1012.2
20260505170828 61 135 1.0 3.0 0.02 1.32 0.00 88 1009.5
20260505170825 56 153 0.0 0.0 0.00 0.16 0.00 87 1011.3
20260505170814 62 302 0.0 3.0 0.00 0.00 0.00 77 1013.1
20260505170812 60 172 5.0 5.0 0.00 0.07 0.00 85 1011.7
20260505170348 67 195 13.0 13.0 0.00 0.00 0.00 68 1012.6
20260505170343 67 206 0.0 0.0 0.00 2.27 0.00 84 1010.8
20260505170338 61 103 4.0 7.0 0.00 0.06 0.00 79 1013.3
20260505170334 64 71 3.0 10.0 0.00 0.29 0.00 83 1012.2
20260505170330 59 203 0.0 0.0 0.02 0.14 0.00 90 1011.3
20260505170328 61 134 1.0 7.0 0.02 1.32 0.00 88 1009.5
20260505170325 56 153 0.0 0.0 0.00 0.16 0.00 87 1011.3
20260505170318 60 234 4.0 8.0 0.00 0.07 0.00 84 1011.7
20260505170314 62 283 0.0 6.0 0.00 0.00 0.00 77 1013.2
20260505165845 67 213 11.0 14.0 0.00 0.00 0.00 68 1012.5
20260505165838 61 136 3.0 4.0 0.00 0.06 0.00 78 1013.5
20260505165836 51 334 2.0 3.0 0.00 0.34 0.00 88 1008.1
20260505165831 61 181 1.0 5.0 0.02 1.32 0.00 87 1009.7
20260505165822 55 153 0.0 0.0 0.00 0.16 0.00 88 1011.3
20260505165814 62 281 1.0 6.0 0.00 0.00 0.00 77 1013.3
20260505165812 60 127 3.0 10.0 0.00 0.07 0.00 83 1011.8
20260505165344 67 229 7.0 13.0 0.00 0.00 0.00 66 1012.6
20260505165340 65 81 8.0 12.0 0.00 0.29 0.00 82 1012.2
20260505165338 61 61 4.0 8.0 0.00 0.06 0.00 77 1013.4
20260505165336 59 203 0.0 1.0 0.02 0.14 0.00 89 1011.4
20260505165333 51 355 2.0 4.0 0.00 0.34 0.00 88 1008.2
20260505165331 61 191 0.0 4.0 0.02 1.32 0.00 87 1009.7
20260505165323 56 153 0.0 0.0 0.00 0.16 0.00 89 1011.3
20260505165315 61 132 5.0 8.0 0.00 0.07 0.00 82 1011.8
20260505164846 67 133 0.0 0.0 0.00 2.27 0.00 85 1010.8
20260505164844 61 140 2.0 8.0 0.00 0.06 0.00 78 1013.4
20260505164836 51 355 3.0 6.0 0.00 0.34 0.00 88 1008.3
20260505164833 59 203 0.0 1.0 0.02 0.14 0.00 89 1011.4
20260505164831 62 171 1.0 6.0 0.02 1.32 0.00 87 1009.7
20260505164819 56 153 0.0 2.0 0.00 0.16 0.00 90 1011.4
20260505164814 62 316 0.0 7.0 0.00 0.00 0.00 77 1013.4
20260505164812 61 187 3.0 7.0 0.00 0.07 0.00 81 1011.7
20260505164344 68 210 5.0 13.0 0.00 0.00 0.00 64 1012.5
20260505164340 64 86 5.0 12.0 0.00 0.29 0.00 83 1012.3
20260505164336 59 203 0.0 2.0 0.02 0.14 0.00 89 1011.4
20260505164332 62 139 1.0 6.0 0.02 1.32 0.00 86 1009.9
20260505164319 56 153 1.0 3.0 0.00 0.16 0.00 91 1011.5
20260505164314 62 300 4.0 5.0 0.00 0.00 0.00 77 1013.4
20260505164312 61 136 4.0 6.0 0.00 0.07 0.00 81 1011.8
20260505163844 68 236 10.0 12.0 0.00 0.00 0.00 63 1012.5
20260505163838 61 126 1.0 6.0 0.00 0.06 0.00 79 1013.4
20260505163831 65 45 4.0 8.0 0.00 0.29 0.00 84 1012.3
20260505163828 62 117 5.0 11.0 0.02 1.32 0.00 84 1009.9
20260505163819 56 153 0.0 3.0 0.00 0.16 0.00 90 1011.5
20260505163814 62 320 4.0 6.0 0.00 0.00 0.00 77 1013.4
20260505163812 61 144 3.0 5.0 0.00 0.07 0.00 81 1011.7
20260505163347 68 222 7.0 11.0 0.00 0.00 0.00 63 1012.5
20260505163343 67 11 0.0 0.0 0.00 2.27 0.00 85 1010.8
20260505163338 61 101 3.0 8.0 0.00 0.06 0.00 79 1013.4
20260505163333 51 335 3.0 5.0 0.00 0.34 0.00 88 1008.3
20260505163331 65 102 2.0 10.0 0.00 0.29 0.00 83 1012.4
20260505163328 63 120 5.0 13.0 0.02 1.32 0.00 84 1009.9
20260505163323 62 282 3.0 6.0 0.00 0.00 0.00 77 1013.4
20260505163319 56 151 1.0 3.0 0.00 0.16 0.00 90 1011.6
20260505163312 61 107 3.0 6.0 0.00 0.07 0.00 81 1011.7
20260505162841 68 195 7.0 11.0 0.00 0.00 0.00 62 1012.4
20260505162838 61 58 6.0 8.0 0.00 0.06 0.00 80 1013.2
20260505162834 65 68 2.0 7.0 0.00 0.29 0.00 84 1012.4
20260505162829 65 110 12.0 13.0 0.02 1.32 0.00 83 1009.5
20260505162822 57 152 0.0 3.0 0.00 0.16 0.00 90 1011.7
20260505162817 62 319 0.0 6.0 0.00 0.00 0.00 77 1013.4
20260505162815 61 235 0.0 6.0 0.00 0.07 0.00 80 1011.8
20260505162345 69 193 9.0 12.0 0.00 0.00 0.00 61 1012.4
20260505162341 61 59 5.0 10.0 0.00 0.06 0.00 82 1013.3
20260505162334 64 113 4.0 10.0 0.00 0.29 0.00 84 1012.4
20260505162332 66 130 7.0 10.0 0.00 1.30 0.00 84 1009.5
20260505162320 62 302 4.0 5.0 0.00 0.00 0.00 77 1013.4
20260505162312 62 169 4.0 8.0 0.00 0.07 0.00 79 1011.8
20260505161846 69 208 8.0 13.0 0.00 0.00 0.00 60 1012.5
20260505161843 67 311 0.0 0.0 0.00 2.27 0.00 85 1010.9
20260505161841 61 48 6.0 11.0 0.00 0.06 0.00 82 1013.5
20260505161837 64 59 2.0 9.0 0.00 0.29 0.00 84 1012.4
20260505161834 51 34 2.0 4.0 0.00 0.34 0.00 89 1008.4
20260505161830 60 203 1.0 3.0 0.01 0.13 0.00 86 1011.4
20260505161820 62 299 2.0 4.0 0.00 0.00 0.00 79 1013.5
20260505161818 62 181 5.0 9.0 0.00 0.07 0.00 79 1011.7
20260505161343 61 65 6.0 7.0 0.00 0.06 0.00 82 1013.5
20260505161340 69 217 3.0 8.0 0.00 0.00 0.00 60 1012.6
20260505161334 51 327 4.0 4.0 0.00 0.34 0.00 88 1008.4
20260505161331 64 71 6.0 11.0 0.00 0.29 0.00 84 1012.3
20260505161319 56 153 0.0 0.0 0.00 0.16 0.00 87 1011.6
20260505161314 62 304 0.0 5.0 0.00 0.00 0.00 79 1013.5
20260505160842 69 215 4.0 13.0 0.00 0.00 0.00 58 1012.6
20260505160840 64 80 7.0 10.0 0.00 0.29 0.00 84 1012.3
20260505160838 60 101 3.0 8.0 0.00 0.06 0.00 82 1013.6
20260505160833 61 203 0.0 2.0 0.00 0.12 0.00 86 1011.4
20260505160822 56 153 0.0 0.0 0.00 0.16 0.00 87 1011.7
20260505160817 62 334 4.0 5.0 0.00 0.00 0.00 79 1013.6
20260505160815 62 148 4.0 9.0 0.00 0.07 0.00 79 1011.8
20260505160348 69 189 6.0 13.0 0.00 0.00 0.00 57 1012.6
20260505160346 67 292 0.0 0.0 0.00 2.27 0.00 84 1010.9
20260505160338 60 93 6.0 10.0 0.00 0.06 0.00 82 1013.6
20260505160334 51 14 2.0 7.0 0.00 0.34 0.00 88 1008.3
20260505160330 61 203 3.0 3.0 0.00 0.11 0.00 84 1011.5
20260505160328 67 150 3.0 8.0 0.00 1.30 0.00 81 1009.1
20260505160325 56 154 0.0 0.0 0.00 0.16 0.00 87 1011.6
20260505160315 62 180 2.0 4.0 0.00 0.07 0.00 78 1011.9
20260505153347 60 83 4.0 10.0 0.00 0.06 0.00 80 1013.8
20260505153345 67 314 0.0 0.0 0.00 2.27 0.00 85 1011.0
20260505153343 69 212 4.0 12.0 0.00 0.00 0.00 56 1012.7
20260505153334 51 14 5.0 7.0 0.00 0.34 0.00 88 1008.4
20260505153331 65 113 4.0 8.0 0.00 0.29 0.00 83 1012.4
20260505153329 66 175 2.0 9.0 0.00 1.30 0.00 83 1009.3
20260505153319 57 163 0.0 0.0 0.00 0.16 0.00 87 1011.7
20260505153317 63 32 2.0 3.0 0.00 0.00 0.00 78 1013.6
20260505153312 61 219 5.0 7.0 0.00 0.07 0.00 78 1011.9
20260505152847 60 63 6.0 9.0 0.00 0.06 0.00 80 1013.8
20260505152845 69 197 7.0 12.0 0.00 0.00 0.00 57 1012.8
20260505152834 51 30 3.0 4.0 0.00 0.33 0.00 88 1008.4
20260505152829 66 104 5.0 6.0 0.00 1.30 0.00 83 1009.3
20260505152820 56 163 0.0 0.0 0.00 0.16 0.00 89 1011.7
20260505152814 63 329 0.0 5.0 0.00 0.00 0.00 78 1013.5
20260505152812 61 178 5.0 10.0 0.00 0.07 0.00 79 1011.8
20260505152340 51 355 1.0 6.0 0.00 0.33 0.00 88 1008.3
20260505152338 60 73 7.0 11.0 0.00 0.06 0.00 80 1013.7
20260505152336 61 203 2.0 3.0 0.00 0.11 0.00 80 1011.4
20260505152332 66 176 3.0 10.0 0.00 1.30 0.00 83 1009.3
20260505152325 56 163 0.0 0.0 0.00 0.16 0.00 89 1011.7
20260505152318 61 165 4.0 4.0 0.00 0.07 0.00 79 1011.9
20260505152314 63 356 4.0 4.0 0.00 0.00 0.00 77 1013.5
20260505151846 67 266 0.0 0.0 0.00 2.27 0.00 85 1011.0
20260505151844 69 201 5.0 10.0 0.00 0.00 0.00 60 1012.8
20260505151838 60 54 6.0 10.0 0.00 0.06 0.00 79 1013.8
20260505151834 51 342 2.0 10.0 0.01 0.33 0.00 88 1008.2
20260505151832 66 119 6.0 12.0 0.00 1.30 0.00 83 1009.3
20260505151830 61 203 0.0 1.0 0.00 0.11 0.00 82 1011.4
20260505151824 56 163 0.0 0.0 0.00 0.16 0.00 89 1011.8
20260505151821 61 176 2.0 5.0 0.00 0.07 0.00 79 1011.9
20260505151817 63 319 0.0 4.0 0.00 0.00 0.00 77 1013.6
20260505151344 60 65 9.0 11.0 0.00 0.06 0.00 78 1013.8
20260505151341 69 184 5.0 11.0 0.00 0.00 0.00 59 1012.9
20260505151337 51 5 6.0 9.0 0.01 0.33 0.00 88 1008.1
20260505151334 66 110 4.0 7.0 0.00 0.29 0.00 81 1012.4
20260505151332 66 180 3.0 12.0 0.00 1.30 0.00 83 1009.4
20260505151330 61 203 0.0 3.0 0.00 0.11 0.00 80 1011.4
20260505151319 56 163 0.0 0.0 0.00 0.16 0.00 89 1011.8
20260505151314 63 326 1.0 6.0 0.00 0.00 0.00 76 1013.6
20260505151312 61 172 2.0 4.0 0.00 0.07 0.00 78 1011.9
20260505150844 60 64 10.0 10.0 0.00 0.06 0.00 77 1013.8
20260505150834 51 346 2.0 6.0 0.01 0.33 0.00 88 1008.1
20260505150831 66 65 3.0 8.0 0.00 0.29 0.00 81 1012.5
20260505150829 66 151 3.0 10.0 0.00 1.30 0.00 82 1009.4
20260505150821 61 227 2.0 2.0 0.00 0.07 0.00 79 1011.9
20260505150819 56 163 0.0 2.0 0.00 0.16 0.00 90 1011.8
20260505150344 69 212 5.0 11.0 0.00 0.00 0.00 60 1012.9
20260505150341 60 53 5.0 10.0 0.00 0.06 0.00 77 1013.7
20260505150337 66 84 2.0 5.0 0.00 0.29 0.00 82 1012.5
20260505150334 51 325 5.0 10.0 0.03 0.33 0.00 88 1008.1
20260505150330 61 203 0.0 0.0 0.00 0.11 0.00 83 1011.3
20260505150324 56 163 2.0 2.0 0.00 0.16 0.00 90 1011.8
20260505150317 63 357 3.0 5.0 0.00 0.00 0.00 75 1013.7
20260505150312 61 194 0.0 0.0 0.00 0.07 0.00 79 1011.9
20260505140351 66 331 0.0 0.0 0.00 2.27 0.00 90 1011.1
20260505140343 70 242 5.0 13.0 0.00 0.00 0.00 60 1013.1
20260505140341 61 67 8.0 15.0 0.00 0.06 0.00 72 1013.8
20260505140338 63 163 9.0 15.0 0.00 1.30 0.00 90 1009.5
20260505140334 51 355 9.0 11.0 0.00 0.30 0.00 88 1008.3
20260505140331 64 83 2.0 8.0 0.00 0.29 0.00 87 1012.7
20260505140322 55 98 0.0 0.0 0.02 0.15 0.00 90 1012.1
20260505140317 62 314 2.0 4.0 0.00 0.00 0.00 77 1013.7
20260505140312 61 180 0.0 0.0 0.00 0.07 0.00 78 1012.3
20260505130312 62 125 0.0 7.0 0.00 0.06 0.00 77 1012.8
20260505124846 63 106 0.0 5.0 0.43 2.27 0.00 94 1011.5
20260505124844 60 85 5.0 9.0 0.01 0.06 0.00 77 1014.5
20260505124840 74 271 2.0 11.0 0.00 0.00 0.00 53 1013.4
20260505124837 51 29 6.0 10.0 0.00 0.30 0.00 89 1008.9
20260505124831 63 109 6.0 10.0 0.00 0.29 0.00 86 1013.3
20260505124829 60 164 2.0 3.0 0.04 1.30 0.00 96 1010.1
20260505124822 58 167 3.0 4.0 0.00 0.13 0.00 88 1012.4
20260505124814 63 334 2.0 3.0 0.00 0.00 0.00 69 1014.1
20260505124812 61 179 8.0 9.0 0.00 0.06 0.00 74 1012.7
20260505124343 74 221 9.0 14.0 0.00 0.00 0.00 52 1013.4
20260505124341 60 68 6.0 9.0 0.01 0.06 0.00 76 1014.5
20260505124337 51 11 4.0 11.0 0.00 0.30 0.00 89 1008.9
20260505124334 63 78 3.0 8.0 0.00 0.29 0.00 87 1013.4
20260505124332 60 219 0.0 2.0 0.04 1.30 0.00 95 1010.5
20260505124320 58 171 4.0 4.0 0.01 0.13 0.00 89 1012.3
20260505124315 63 299 0.0 2.0 0.00 0.00 0.00 68 1014.0
20260505123849 74 212 9.0 14.0 0.00 0.00 0.00 48 1013.5
20260505123838 51 66 4.0 11.0 0.00 0.30 0.00 89 1008.9
20260505123836 59 38 0.0 0.0 0.01 0.11 0.00 86 1012.3
20260505123834 63 64 1.0 9.0 0.00 0.29 0.00 87 1013.4
20260505123832 60 217 1.0 2.0 0.03 1.29 0.00 96 1010.5
20260505123819 58 143 3.0 4.0 0.01 0.13 0.00 89 1012.2
20260505123817 63 280 0.0 4.0 0.00 0.00 0.00 69 1014.0
20260505123815 62 209 3.0 8.0 0.00 0.06 0.00 76 1012.9
20260505123346 62 111 2.0 6.0 0.42 2.26 0.00 92 1011.4
20260505123340 74 193 7.0 13.0 0.00 0.00 0.00 47 1013.6
20260505123338 61 53 5.0 11.0 0.01 0.06 0.00 76 1014.4
20260505123334 63 61 3.0 7.0 0.00 0.29 0.00 88 1013.3
20260505123329 60 215 2.0 2.0 0.04 1.29 0.00 96 1010.5
20260505123322 58 150 1.0 4.0 0.01 0.13 0.00 89 1012.3
20260505123318 63 314 1.0 4.0 0.00 0.00 0.00 68 1014.1
20260505123315 62 180 2.0 9.0 0.00 0.06 0.00 79 1012.8
20260505122847 61 65 8.0 11.0 0.01 0.06 0.00 76 1014.5
20260505122840 74 175 9.0 13.0 0.00 0.00 0.00 48 1013.6
20260505122837 51 69 8.0 11.0 0.03 0.30 0.00 89 1008.9
20260505122832 59 216 1.0 2.0 0.06 1.28 0.00 96 1010.8
20260505122830 58 143 0.0 3.0 0.02 0.13 0.00 89 1012.3
20260505122814 64 15 0.0 0.0 0.00 0.00 0.00 66 1014.1
20260505122812 62 134 3.0 10.0 0.00 0.06 0.00 79 1012.9
20260505122340 51 5 9.0 10.0 0.04 0.30 0.00 89 1008.9
20260505122338 61 74 8.0 11.0 0.01 0.06 0.00 76 1014.5
20260505122335 59 266 1.0 2.0 0.06 1.28 0.00 96 1010.7
20260505122330 59 38 1.0 1.0 0.01 0.11 0.00 87 1012.4
20260505122323 63 239 0.0 0.0 0.00 0.00 0.00 66 1014.1
20260505122312 62 157 7.0 11.0 0.00 0.06 0.00 80 1012.8
20260505121846 64 100 0.0 1.0 0.30 2.08 0.00 94 1011.5
20260505121840 51 355 5.0 10.0 0.07 0.30 0.00 89 1008.9
20260505121837 61 51 7.0 11.0 0.01 0.06 0.00 76 1014.5
20260505121835 59 267 1.0 2.0 0.08 1.28 0.00 96 1010.7
20260505121833 59 38 0.0 0.0 0.00 0.11 0.00 86 1012.4
20260505121822 58 137 0.0 0.0 0.03 0.13 0.00 88 1012.3
20260505121817 63 266 0.0 3.0 0.00 0.00 0.00 64 1014.2
20260505121812 62 157 1.0 6.0 0.00 0.06 0.00 80 1012.9
20260505121341 61 65 6.0 9.0 0.01 0.06 0.00 76 1014.5
20260505121334 51 67 4.0 7.0 0.07 0.30 0.00 89 1009.0
20260505121332 59 266 1.0 2.0 0.10 1.28 0.00 96 1010.6
20260505121330 59 38 0.0 0.0 0.00 0.11 0.00 87 1012.3
20260505121319 58 131 0.0 0.0 0.04 0.13 0.00 87 1012.4
20260505121317 64 264 0.0 0.0 0.00 0.00 0.00 64 1014.3
20260505121315 61 170 5.0 8.0 0.00 0.06 0.00 79 1012.7
20260505120841 74 200 10.0 14.0 0.00 0.00 0.00 46 1013.6
20260505120837 61 46 4.0 11.0 0.01 0.06 0.00 76 1014.5
20260505120834 50 78 3.0 9.0 0.07 0.30 0.00 89 1009.0
20260505120832 59 263 0.0 1.0 0.13 1.28 0.00 96 1010.6
20260505120830 59 39 0.0 0.0 0.00 0.10 0.00 87 1012.3
20260505120815 61 141 5.0 7.0 0.00 0.06 0.00 80 1012.8
20260505120347 61 69 11.0 12.0 0.01 0.06 0.00 77 1014.4
20260505120343 65 323 0.0 2.0 0.07 1.84 0.00 94 1011.4
20260505120340 74 194 4.0 14.0 0.00 0.00 0.00 46 1013.6
20260505120334 61 84 3.0 8.0 0.00 0.29 0.00 89 1013.6
20260505120330 58 263 0.0 3.0 0.14 1.28 0.00 95 1010.6
20260505120324 58 130 0.0 0.0 0.04 0.12 0.00 86 1012.4
20260505120321 61 209 6.0 6.0 0.00 0.06 0.00 80 1012.8
20260505120314 63 264 0.0 0.0 0.00 0.00 0.00 63 1014.3
20260505115845 74 179 5.0 15.0 0.00 0.00 0.00 46 1013.5
20260505115838 61 80 4.0 10.0 0.00 0.05 0.00 74 1014.6
20260505115835 58 273 1.0 2.0 0.16 1.28 0.00 95 1010.6
20260505115833 59 38 0.0 1.0 0.00 0.10 0.00 87 1012.4
20260505115830 58 130 0.0 2.0 0.04 0.12 0.00 85 1012.6
20260505115815 61 142 3.0 7.0 0.01 0.06 0.00 80 1012.8
20260505115341 61 47 4.0 10.0 0.00 0.05 0.00 74 1014.5
20260505115338 50 41 2.0 5.0 0.07 0.30 0.00 88 1009.1
20260505115334 61 96 2.0 8.0 0.00 0.29 0.00 89 1013.7
20260505115332 58 273 0.0 0.0 0.17 1.28 0.00 96 1010.6
20260505115319 57 95 2.0 3.0 0.05 0.12 0.00 83 1012.4
20260505115315 64 289 0.0 0.0 0.00 0.00 0.00 63 1014.3
20260505115312 61 153 4.0 7.0 0.01 0.06 0.00 82 1012.8
20260505114849 65 308 0.0 0.0 0.07 1.84 0.00 94 1011.5
20260505114843 50 49 3.0 7.0 0.07 0.30 0.00 88 1009.1
20260505114838 61 47 4.0 10.0 0.00 0.05 0.00 76 1014.6
20260505114835 58 273 0.0 0.0 0.15 1.26 0.00 95 1010.6
20260505114830 58 38 0.0 0.0 0.01 0.10 0.00 88 1012.4
20260505114827 58 84 1.0 2.0 0.06 0.12 0.00 84 1012.4
20260505114818 61 209 3.0 4.0 0.01 0.06 0.00 83 1012.8
20260505114816 63 264 0.0 3.0 0.00 0.00 0.00 66 1014.1
20260505114341 60 59 5.0 11.0 0.00 0.05 0.00 73 1014.5
20260505114334 50 40 3.0 7.0 0.06 0.29 0.00 88 1009.0
20260505114330 58 38 0.0 0.0 0.01 0.10 0.00 88 1012.4
20260505114322 58 81 1.0 2.0 0.05 0.11 0.00 85 1012.5
20260505114315 63 301 1.0 4.0 0.00 0.00 0.00 65 1014.1
20260505114312 61 182 4.0 6.0 0.02 0.06 0.00 83 1012.9
20260505113845 75 229 9.0 15.0 0.00 0.00 0.00 44 1013.6
20260505113838 60 75 4.0 9.0 0.00 0.05 0.00 75 1014.5
20260505113836 58 38 0.0 0.0 0.02 0.10 0.00 88 1012.4
20260505113834 50 23 3.0 11.0 0.06 0.29 0.00 88 1009.2
20260505113832 57 273 1.0 1.0 0.16 1.26 0.00 95 1010.7
20260505113826 58 80 0.0 3.0 0.06 0.11 0.00 86 1012.5
20260505113821 63 295 0.0 3.0 0.00 0.00 0.00 63 1014.2
20260505113815 61 148 2.0 4.0 0.02 0.06 0.00 85 1013.0
20260505113346 76 191 10.0 15.0 0.00 0.00 0.00 43 1013.5
20260505113343 65 305 0.0 1.0 0.07 1.84 0.00 94 1011.4
20260505113337 50 61 0.0 4.0 0.04 0.28 0.00 88 1009.2
20260505113331 60 123 3.0 7.0 0.00 0.29 0.00 89 1013.9
20260505113329 58 65 2.0 3.0 0.07 0.11 0.00 87 1012.4
20260505113321 60 167 0.0 4.0 0.02 0.06 0.00 84 1013.1
20260505113315 63 63 0.0 4.0 0.00 0.00 0.00 64 1014.3
20260505112845 76 217 4.0 17.0 0.00 0.00 0.00 42 1013.5
20260505112837 50 48 2.0 7.0 0.03 0.26 0.00 88 1009.1
20260505112833 58 38 0.0 1.0 0.03 0.10 0.00 89 1012.3
20260505112829 57 270 0.0 2.0 0.15 1.22 0.00 95 1010.8
20260505112822 58 113 1.0 2.0 0.07 0.11 0.00 86 1012.6
20260505112815 64 6 0.0 4.0 0.00 0.00 0.00 63 1014.2
20260505112812 60 167 3.0 4.0 0.03 0.06 0.00 84 1013.1
20260505112341 61 53 7.0 10.0 0.00 0.05 0.00 73 1014.5
20260505112334 60 117 3.0 7.0 0.00 0.29 0.00 90 1013.9
20260505112329 57 265 1.0 2.0 0.15 1.21 0.00 95 1010.8
20260505112319 58 113 1.0 3.0 0.06 0.10 0.00 87 1012.6
20260505112315 60 165 2.0 4.0 0.03 0.06 0.00 85 1013.1
20260505111846 65 326 0.0 0.0 0.00 1.77 0.00 95 1011.4
20260505111840 76 212 8.0 18.0 0.00 0.00 0.00 42 1013.4
20260505111835 51 30 5.0 8.0 0.00 0.23 0.00 88 1009.0
20260505111832 57 263 0.0 2.0 0.14 1.19 0.00 95 1010.8
20260505111830 58 38 0.0 0.0 0.04 0.10 0.00 89 1012.5
20260505111822 58 86 0.0 2.0 0.06 0.09 0.00 85 1012.5
20260505111818 63 359 0.0 3.0 0.00 0.00 0.00 65 1014.2
20260505111815 60 167 1.0 4.0 0.03 0.06 0.00 85 1013.2
20260505111344 61 58 4.0 9.0 0.00 0.05 0.00 71 1014.5
20260505111338 57 263 0.0 2.0 0.12 1.17 0.00 95 1010.6
20260505111333 58 38 0.0 3.0 0.04 0.10 0.00 89 1012.4
20260505111321 60 150 3.0 5.0 0.03 0.05 0.00 83 1013.3
20260505111319 58 50 0.0 5.0 0.06 0.08 0.00 86 1012.4
20260505110840 76 170 12.0 18.0 0.00 0.00 0.00 45 1013.4
20260505110838 61 90 4.0 7.0 0.00 0.05 0.00 73 1014.5
20260505110835 52 49 5.0 6.0 0.00 0.23 0.00 88 1008.9
20260505110830 58 38 0.0 3.0 0.05 0.10 0.00 90 1012.4
20260505110822 58 33 2.0 5.0 0.06 0.07 0.00 87 1012.5
20260505110818 62 258 0.0 4.0 0.00 0.00 0.00 66 1014.3
20260505110346 65 297 0.0 0.0 0.00 1.77 0.00 95 1011.4
20260505110341 61 74 5.0 8.0 0.00 0.05 0.00 74 1014.5
20260505110334 52 338 4.0 9.0 0.00 0.23 0.00 88 1008.8
20260505110332 57 264 1.0 2.0 0.09 1.13 0.00 95 1010.6
20260505110330 58 38 2.0 3.0 0.05 0.10 0.00 90 1012.5
20260505110322 58 85 1.0 4.0 0.06 0.07 0.00 89 1012.6
20260505110315 62 4 3.0 7.0 0.00 0.00 0.00 64 1014.1
20260505101844 60 67 4.0 8.0 0.00 0.05 0.00 71 1014.3
20260505101841 76 200 3.0 16.0 0.00 0.00 0.00 50 1013.4
20260505101833 58 207 2.0 5.0 0.01 0.05 0.00 87 1012.7
20260505101831 59 74 2.0 7.0 0.00 0.29 0.00 93 1014.0
20260505101822 58 87 1.0 6.0 0.02 0.03 0.00 86 1012.7
20260505101812 60 218 0.0 0.0 0.02 0.03 0.00 79 1013.3
20260505101343 77 203 9.0 16.0 0.00 0.00 0.00 49 1013.3
20260505101338 60 68 3.0 6.0 0.00 0.05 0.00 73 1014.3
20260505101334 52 17 3.0 9.0 0.07 0.22 0.00 88 1008.8
20260505101331 58 50 3.0 4.0 0.00 0.29 0.00 93 1013.9
20260505101329 56 211 2.0 2.0 0.09 1.04 0.00 95 1010.4
20260505101319 58 78 4.0 6.0 0.01 0.02 0.00 85 1012.7
20260505101315 60 157 0.0 0.0 0.01 0.02 0.00 79 1013.2
20260505100844 76 236 4.0 15.0 0.00 0.00 0.00 50 1013.4
20260505100838 56 211 3.0 3.0 0.10 1.04 0.00 95 1010.4
20260505100834 52 340 4.0 9.0 0.08 0.22 0.00 88 1008.8
20260505100831 58 71 2.0 4.0 0.00 0.29 0.00 93 1014.1
20260505100828 59 108 1.0 6.0 0.00 0.01 0.00 85 1012.6
20260505100815 63 86 0.0 4.0 0.00 0.00 0.00 70 1014.1
20260505100812 60 232 0.0 1.0 0.01 0.02 0.00 79 1013.2
20260505100344 60 50 1.0 6.0 0.00 0.05 0.00 71 1014.4
20260505100340 76 161 5.0 17.0 0.00 0.00 0.00 48 1013.3
20260505100334 52 307 7.0 7.0 0.09 0.22 0.00 88 1008.9
20260505100332 55 163 2.0 3.0 0.11 1.03 0.00 95 1010.4
20260505100330 59 214 0.0 3.0 0.02 0.04 0.00 86 1012.4
20260505100315 62 357 2.0 6.0 0.00 0.00 0.00 68 1014.3
20260505100312 60 210 0.0 0.0 0.00 0.01 0.00 77 1013.2
20260505095843 77 183 10.0 13.0 0.00 0.00 0.00 46 1013.2
20260505095840 60 51 5.0 5.0 0.00 0.05 0.00 73 1014.4
20260505095837 51 319 6.0 9.0 0.10 0.22 0.00 88 1008.9
20260505095833 59 214 0.0 3.0 0.02 0.04 0.00 86 1012.3
20260505095831 58 70 2.0 3.0 0.00 0.29 0.00 93 1014.1
20260505095821 60 324 0.0 6.0 0.00 0.00 0.00 71 1014.1
20260505095812 60 210 0.0 0.0 0.00 0.01 0.00 75 1013.3
20260505095810 59 154 1.0 3.0 0.00 0.01 0.00 83 1012.6
20260505095341 51 0 5.0 11.0 0.11 0.22 0.00 88 1008.9
20260505095333 58 214 3.0 6.0 0.03 0.04 0.00 85 1012.4
20260505095331 58 0 1.0 1.0 0.00 0.29 0.00 94 1014.1
20260505095321 60 207 0.0 0.0 0.00 0.01 0.00 76 1013.1
20260505095315 60 323 2.0 10.0 0.00 0.00 0.00 74 1013.9
20260505095307 59 118 1.0 3.0 0.01 0.01 0.00 84 1012.6
20260505094847 62 300 0.0 0.0 0.81 1.75 0.00 95 1011.4
20260505094843 76 203 5.0 13.0 0.00 0.00 0.00 44 1013.2
20260505094841 59 55 3.0 5.0 0.00 0.05 0.00 76 1014.5
20260505094835 51 350 6.0 10.0 0.11 0.22 0.00 88 1008.9
20260505094831 57 0 0.0 2.0 0.00 0.29 0.00 94 1014.1
20260505094829 55 249 1.0 3.0 0.09 1.01 0.00 95 1010.6
20260505094815 59 313 5.0 8.0 0.00 0.00 0.00 75 1013.9
20260505094812 60 206 0.0 0.0 0.01 0.01 0.00 76 1013.2
20260505094810 59 157 2.0 2.0 0.01 0.01 0.00 84 1012.5
20260505094341 59 74 2.0 3.0 0.00 0.05 0.00 79 1014.5
20260505094334 51 15 4.0 10.0 0.11 0.21 0.00 88 1009.0
20260505094331 57 0 1.0 3.0 0.00 0.29 0.00 93 1014.2
20260505094321 60 96 0.0 1.0 0.01 0.01 0.00 75 1013.2
20260505094315 59 302 4.0 5.0 0.00 0.00 0.00 75 1014.1
20260505094307 59 156 0.0 3.0 0.01 0.01 0.00 84 1012.4
20260505094026 51 33 4.0 8.0 0.11 0.20 0.00 88 1009.0
20260505093846 76 223 4.0 6.0 0.00 0.00 0.00 46 1013.2
20260505093838 59 74 4.0 5.0 0.00 0.05 0.00 80 1014.4
20260505093833 59 213 2.0 5.0 0.03 0.04 0.00 86 1012.4
20260505093831 57 5 0.0 2.0 0.01 0.29 0.00 93 1014.1
20260505093815 60 95 0.0 2.0 0.01 0.01 0.00 76 1013.1
20260505093810 59 93 1.0 3.0 0.01 0.01 0.00 82 1012.4
20260505093346 76 155 3.0 11.0 0.00 0.00 0.00 46 1013.5
20260505093344 62 142 0.0 0.0 0.77 1.70 0.00 95 1011.4
20260505093340 59 51 3.0 3.0 0.00 0.05 0.00 80 1014.5
20260505093334 57 5 0.0 2.0 0.01 0.29 0.00 93 1014.0
20260505093331 51 355 4.0 7.0 0.11 0.19 0.00 88 1009.0
20260505093329 55 281 0.0 2.0 0.13 1.01 0.00 95 1010.4
20260505093324 59 301 0.0 3.0 0.00 0.00 0.00 75 1014.1
20260505093313 59 95 2.0 6.0 0.00 0.00 0.00 82 1012.6
20260505092844 76 210 2.0 10.0 0.00 0.00 0.00 46 1013.5
20260505092840 58 52 2.0 4.0 0.00 0.05 0.00 81 1014.3
20260505092837 57 5 0.0 2.0 0.02 0.29 0.00 93 1013.9
20260505092834 51 355 2.0 6.0 0.10 0.18 0.00 88 1009.1
20260505092830 59 212 2.0 4.0 0.02 0.03 0.00 85 1012.4
20260505092824 59 20 2.0 4.0 0.00 0.00 0.00 75 1014.1
20260505092816 59 101 4.0 5.0 0.00 0.00 0.00 84 1012.5
20260505092812 60 220 0.0 3.0 0.01 0.01 0.00 74 1013.1
20260505092340 76 182 5.0 11.0 0.00 0.00 0.00 46 1013.5
20260505092338 58 51 2.0 3.0 0.01 0.05 0.00 83 1014.5
20260505092333 55 251 1.0 4.0 0.20 0.95 0.00 95 1010.1
20260505092331 57 5 1.0 1.0 0.03 0.29 0.00 93 1013.9
20260505092315 59 333 3.0 3.0 0.00 0.00 0.00 75 1014.1
20260505092312 60 222 2.0 4.0 0.01 0.01 0.00 75 1013.2
20260505092310 59 144 0.0 2.0 0.00 0.00 0.00 83 1012.6
20260505091850 61 204 0.0 1.0 0.80 1.66 0.00 95 1010.9
20260505091844 76 171 4.0 8.0 0.00 0.00 0.00 48 1013.3
20260505091834 57 0 1.0 1.0 0.04 0.29 0.00 93 1013.9
20260505091830 59 210 2.0 5.0 0.02 0.03 0.00 83 1012.4
20260505091815 60 191 0.0 3.0 0.00 0.00 0.00 74 1013.2
20260505091810 59 144 1.0 3.0 0.00 0.00 0.00 82 1012.6
20260505091346 76 123 4.0 9.0 0.00 0.00 0.00 47 1013.4
20260505091341 59 39 2.0 3.0 0.01 0.05 0.00 83 1014.5
20260505091331 57 0 0.0 2.0 0.05 0.29 0.00 94 1013.8
20260505091329 55 240 2.0 2.0 0.28 0.94 0.00 94 1010.1
20260505091318 59 27 2.0 3.0 0.00 0.00 0.00 75 1014.2
20260505091312 60 192 3.0 6.0 0.00 0.00 0.00 72 1013.4
20260505091310 59 137 1.0 2.0 0.00 0.00 0.00 81 1012.7
20260505090843 75 132 3.0 8.0 0.00 0.00 0.00 47 1013.4
20260505090838 58 252 1.0 2.0 0.02 0.05 0.00 83 1014.6
20260505090832 55 240 0.0 1.0 0.27 0.93 0.00 94 1010.1
20260505090830 59 344 0.0 3.0 0.02 0.03 0.00 83 1012.4
20260505090821 60 202 0.0 0.0 0.00 0.00 0.00 72 1013.2
20260505090815 59 1 0.0 3.0 0.00 0.00 0.00 75 1014.2
20260505090811 59 137 1.0 2.0 0.00 0.00 0.00 81 1012.4
20260505090344 61 129 0.0 0.0 0.29 1.13 0.00 95 1011.3
20260505090341 75 162 3.0 9.0 0.00 0.00 0.00 46 1013.5
20260505090339 59 348 0.0 2.0 0.01 0.02 0.00 84 1012.4
20260505090337 57 0 0.0 1.0 0.07 0.29 0.00 93 1013.9
20260505090331 52 63 4.0 6.0 0.11 0.13 0.00 88 1009.3
20260505090315 59 11 0.0 5.0 0.00 0.00 0.00 74 1014.2
20260505090312 60 202 0.0 0.0 0.00 0.00 0.00 72 1013.3
20260505090307 60 166 1.0 3.0 0.00 0.00 0.00 80 1012.5
20260505085841 58 252 0.0 0.0 0.03 0.05 0.00 83 1014.7
20260505085837 57 0 0.0 3.0 0.08 0.29 0.00 93 1013.9
20260505085831 52 46 3.0 5.0 0.11 0.11 0.00 88 1009.3
20260505085829 55 240 0.0 1.0 0.28 0.91 0.00 94 1010.2
20260505085815 59 302 0.0 3.0 0.00 0.00 0.00 74 1014.1
20260505085812 60 205 0.0 4.0 0.00 0.00 0.00 71 1013.3
20260505085810 60 167 3.0 3.0 0.00 0.00 0.00 80 1012.5
20260505085344 75 173 5.0 8.0 0.00 0.00 0.00 52 1013.6
20260505085337 52 32 3.0 7.0 0.10 0.10 0.00 88 1009.2
20260505085333 59 348 1.0 2.0 0.01 0.01 0.00 84 1012.4
20260505085331 57 37 0.0 3.0 0.10 0.29 0.00 93 1013.8
20260505085324 59 314 0.0 5.0 0.00 0.00 0.00 74 1014.2
20260505085312 60 178 2.0 6.0 0.00 0.00 0.00 71 1013.2
20260505085307 60 167 0.0 4.0 0.00 0.00 0.00 80 1012.4
20260505084846 74 137 1.0 8.0 0.00 0.00 0.00 53 1013.7
20260505084844 61 129 0.0 0.0 0.10 0.93 0.00 95 1011.3
20260505084840 58 252 2.0 3.0 0.04 0.05 0.00 83 1014.5
20260505084836 55 240 1.0 2.0 0.28 0.91 0.00 95 1010.2
20260505084834 52 55 5.0 5.0 0.10 0.10 0.00 88 1009.2
20260505084830 59 348 0.0 1.0 0.01 0.01 0.00 83 1012.4
20260505084824 58 293 2.0 5.0 0.00 0.00 0.00 72 1014.1
20260505084812 61 183 3.0 6.0 0.00 0.00 0.00 72 1013.3
20260505084807 60 169 2.0 4.0 0.00 0.00 0.00 79 1012.4
20260505084343 74 203 3.0 7.0 0.00 0.00 0.00 55 1013.9
20260505084341 58 252 1.0 2.0 0.04 0.05 0.00 82 1014.4
20260505084336 59 348 0.0 2.0 0.01 0.01 0.00 82 1012.4
20260505084334 57 109 0.0 2.0 0.11 0.28 0.00 93 1013.7
20260505084315 58 75 0.0 6.0 0.00 0.00 0.00 76 1014.1
20260505084312 61 221 4.0 6.0 0.00 0.00 0.00 70 1013.2
20260505084307 60 74 0.0 0.0 0.00 0.00 0.00 79 1012.4
20260505083846 73 218 3.0 8.0 0.00 0.00 0.00 54 1014.0
20260505083840 52 56 2.0 6.0 0.08 0.08 0.00 87 1009.3
20260505083838 58 252 1.0 2.0 0.04 0.05 0.00 82 1014.4
20260505083836 59 348 0.0 2.0 0.01 0.01 0.00 83 1012.5
20260505083830 54 328 0.0 3.0 0.27 0.90 0.00 94 1010.3
20260505083821 58 308 3.0 6.0 0.00 0.00 0.00 74 1013.9
20260505083812 61 205 5.0 10.0 0.00 0.00 0.00 69 1013.2
20260505083807 60 74 0.0 0.0 0.00 0.00 0.00 78 1012.3
20260505083350 61 237 0.0 0.0 0.10 0.92 0.00 95 1011.3
20260505083343 73 206 3.0 5.0 0.00 0.00 0.00 57 1014.1
20260505083339 54 25 2.0 3.0 0.25 0.88 0.00 94 1010.3
20260505083337 57 252 0.0 3.0 0.04 0.05 0.00 82 1014.4
20260505083334 52 74 7.0 7.0 0.08 0.08 0.00 87 1009.3
20260505083331 57 109 0.0 2.0 0.14 0.27 0.00 93 1013.9
20260505083315 58 12 1.0 5.0 0.00 0.00 0.00 76 1014.0
20260505083312 61 132 0.0 6.0 0.00 0.00 0.00 70 1013.2
20260505083310 60 74 0.0 0.0 0.00 0.00 0.00 77 1012.2
20260505082844 73 172 1.0 6.0 0.00 0.00 0.00 58 1014.0
20260505082835 52 109 6.0 7.0 0.07 0.07 0.00 87 1009.4
20260505082831 57 109 0.0 2.0 0.14 0.26 0.00 93 1013.6
20260505082818 58 340 3.0 5.0 0.00 0.00 0.00 76 1014.0
20260505082812 62 171 6.0 6.0 0.00 0.00 0.00 67 1013.2
20260505082346 72 171 3.0 7.0 0.00 0.00 0.00 58 1014.0
20260505082344 56 252 1.0 3.0 0.04 0.04 0.00 83 1014.5
20260505082334 57 109 1.0 4.0 0.14 0.25 0.00 93 1013.5
20260505082332 51 86 5.0 7.0 0.07 0.07 0.00 86 1009.4
20260505082330 60 348 0.0 1.0 0.01 0.01 0.00 81 1012.4
20260505082315 58 12 0.0 4.0 0.00 0.00 0.00 74 1014.0
20260505082312 62 196 5.0 7.0 0.00 0.00 0.00 66 1013.0
20260505082310 60 74 0.0 0.0 0.00 0.00 0.00 74 1012.2
20260505081851 61 237 0.0 0.0 0.03 0.86 0.00 95 1011.1
20260505081840 72 166 4.0 9.0 0.00 0.00 0.00 58 1014.0
20260505081838 56 252 0.0 4.0 0.04 0.04 0.00 83 1014.5
20260505081833 60 348 1.0 3.0 0.01 0.01 0.00 81 1012.3
20260505081831 57 108 0.0 5.0 0.14 0.24 0.00 93 1013.4
20260505081815 58 318 3.0 6.0 0.00 0.00 0.00 74 1014.0
20260505081812 62 207 3.0 6.0 0.00 0.00 0.00 66 1012.9
20260505081807 60 74 0.0 2.0 0.00 0.00 0.00 74 1012.2
20260505081350 72 203 4.0 5.0 0.00 0.00 0.00 61 1014.0
20260505081340 56 252 2.0 4.0 0.04 0.04 0.00 83 1014.5
20260505081332 51 132 4.0 10.0 0.05 0.05 0.00 85 1009.3
20260505081330 54 252 1.0 4.0 0.02 0.65 0.00 94 1009.9
20260505081318 58 8 1.0 5.0 0.00 0.00 0.00 74 1014.1
20260505081312 62 159 0.0 6.0 0.00 0.00 0.00 65 1012.9
20260505081310 61 74 2.0 3.0 0.00 0.00 0.00 75 1012.2
20260505080841 71 155 3.0 9.0 0.00 0.00 0.00 63 1014.0
20260505080839 54 188 3.0 3.0 0.03 0.65 0.00 94 1009.9
20260505080834 52 5 5.0 9.0 0.03 0.03 0.00 84 1009.2
20260505080831 57 107 2.0 3.0 0.15 0.22 0.00 93 1013.5
20260505080815 57 310 0.0 0.0 0.00 0.00 0.00 78 1014.0
20260505080807 61 75 2.0 2.0 0.00 0.00 0.00 74 1012.2
20260505080350 61 237 0.0 0.0 0.03 0.83 0.00 95 1011.0
20260505080343 71 160 5.0 8.0 0.00 0.00 0.00 62 1013.8
20260505080340 52 43 4.0 8.0 0.02 0.02 0.00 83 1009.2
20260505080338 57 253 1.0 3.0 0.03 0.04 0.00 83 1014.3
20260505080331 57 107 1.0 4.0 0.14 0.21 0.00 92 1013.6
20260505080318 61 75 2.0 3.0 0.00 0.00 0.00 73 1012.2
20260505080315 62 180 0.0 5.0 0.00 0.00 0.00 63 1012.7
20260505075845 57 252 2.0 3.0 0.02 0.03 0.00 82 1014.4
20260505075843 71 157 4.0 8.0 0.00 0.00 0.00 63 1013.9
20260505075840 57 196 1.0 2.0 0.14 0.20 0.00 92 1013.6
20260505075835 52 42 5.0 10.0 0.00 0.00 0.00 82 1009.1
20260505075833 60 348 0.0 3.0 0.00 0.00 0.00 77 1012.2
20260505075830 54 186 1.0 1.0 0.04 0.63 0.00 94 1010.1
20260505075818 57 283 0.0 1.0 0.00 0.00 0.00 76 1013.9
20260505075812 62 220 3.0 5.0 0.00 0.00 0.00 62 1012.8
20260505075807 60 111 0.0 0.0 0.00 0.00 0.00 71 1012.3
20260505075343 71 219 3.0 8.0 0.00 0.00 0.00 64 1014.0
20260505075337 57 252 2.0 4.0 0.02 0.02 0.00 82 1014.3
20260505075335 52 11 9.0 11.0 0.00 0.00 0.00 81 1009.1
20260505075333 61 348 2.0 2.0 0.00 0.00 0.00 76 1012.1
20260505075330 54 186 0.0 1.0 0.08 0.63 0.00 94 1010.1
20260505075315 57 158 0.0 0.0 0.00 0.00 0.00 76 1014.1
20260505075313 61 111 0.0 0.0 0.00 0.00 0.00 71 1012.2
20260505074844 60 237 0.0 0.0 0.03 0.83 0.00 95 1011.0
20260505074841 57 234 3.0 7.0 0.02 0.02 0.00 82 1014.4
20260505074833 61 348 0.0 2.0 0.00 0.00 0.00 74 1012.0
20260505074831 54 186 0.0 1.0 0.14 0.63 0.00 94 1010.1
20260505074815 56 158 0.0 0.0 0.00 0.00 0.00 75 1014.1
20260505074810 61 111 0.0 0.0 0.00 0.00 0.00 71 1012.2
20260505074341 57 255 2.0 4.0 0.02 0.02 0.00 82 1014.3
20260505074336 54 186 0.0 1.0 0.15 0.63 0.00 94 1010.2
20260505074331 57 229 0.0 1.0 0.11 0.16 0.00 92 1013.8
20260505074318 62 44 0.0 0.0 0.00 0.00 0.00 58 1012.6
20260505074315 61 111 0.0 0.0 0.00 0.00 0.00 71 1012.2
20260505073843 70 143 2.0 5.0 0.00 0.00 0.00 68 1014.1
20260505073837 57 229 0.0 1.0 0.10 0.14 0.00 92 1013.9
20260505073833 54 186 1.0 2.0 0.16 0.63 0.00 94 1010.2
20260505073830 61 348 2.0 3.0 0.00 0.00 0.00 71 1011.8
20260505073824 57 155 0.0 0.0 0.00 0.00 0.00 73 1014.0
20260505073812 62 44 0.0 0.0 0.00 0.00 0.00 58 1012.6
20260505073353 60 236 0.0 0.0 0.02 0.82 0.00 95 1010.9
20260505073340 69 188 0.0 5.0 0.00 0.00 0.00 69 1014.1
20260505073338 58 211 0.0 5.0 0.01 0.01 0.00 81 1014.4
20260505073335 52 346 5.0 11.0 0.00 0.00 0.00 81 1009.1
20260505073331 57 229 0.0 1.0 0.10 0.13 0.00 92 1013.9
20260505073318 57 160 0.0 5.0 0.00 0.00 0.00 72 1014.1
20260505073315 62 24 0.0 4.0 0.00 0.00 0.00 57 1012.6
20260505073310 60 110 0.0 3.0 0.00 0.00 0.00 72 1012.1
20260505072840 69 124 3.0 6.0 0.00 0.00 0.00 69 1014.0
20260505072838 58 215 3.0 4.0 0.01 0.01 0.00 80 1014.3
20260505072834 57 229 0.0 1.0 0.08 0.11 0.00 92 1014.0
20260505072832 52 55 7.0 13.0 0.00 0.00 0.00 81 1009.1
20260505072821 58 155 2.0 6.0 0.00 0.00 0.00 71 1014.1
20260505072813 60 111 0.0 2.0 0.00 0.00 0.00 73 1012.1
20260505072341 58 205 3.0 4.0 0.01 0.01 0.00 79 1014.4
20260505072339 52 349 5.0 11.0 0.00 0.00 0.00 81 1009.1
20260505072337 57 229 0.0 2.0 0.08 0.11 0.00 92 1014.1
20260505072330 61 19 2.0 4.0 0.00 0.00 0.00 71 1011.7
20260505072318 58 174 4.0 4.0 0.00 0.00 0.00 72 1014.0
20260505072310 59 111 0.0 3.0 0.00 0.00 0.00 73 1012.1
20260505071844 60 236 0.0 0.0 0.02 0.82 0.00 95 1011.0
20260505071841 59 257 1.0 3.0 0.01 0.01 0.00 77 1014.3
20260505071835 52 48 4.0 14.0 0.00 0.00 0.00 81 1009.0
20260505071833 54 266 1.0 3.0 0.20 0.63 0.00 94 1010.6
20260505071815 58 150 3.0 3.0 0.00 0.00 0.00 67 1014.0
20260505071813 60 112 0.0 0.0 0.00 0.00 0.00 73 1012.1
20260505071340 67 159 3.0 7.0 0.00 0.00 0.00 71 1014.1
20260505071338 59 256 2.0 4.0 0.01 0.01 0.00 74 1014.4
20260505071332 52 5 5.0 12.0 0.00 0.00 0.00 80 1008.8
20260505071330 54 44 1.0 3.0 0.20 0.63 0.00 94 1010.5
20260505071315 59 162 1.0 3.0 0.00 0.00 0.00 67 1014.0
20260505071312 61 337 2.0 7.0 0.00 0.00 0.00 58 1012.7
20260505071310 59 112 0.0 0.0 0.00 0.00 0.00 73 1012.2
20260505070843 67 182 3.0 7.0 0.00 0.00 0.00 73 1014.1
20260505070838 59 244 3.0 4.0 0.01 0.01 0.00 73 1014.4
20260505070834 57 227 1.0 2.0 0.05 0.07 0.00 91 1013.9
20260505070832 52 46 9.0 14.0 0.00 0.00 0.00 80 1008.7
20260505070830 54 261 1.0 3.0 0.19 0.62 0.00 94 1010.6
20260505070815 59 159 3.0 4.0 0.00 0.00 0.00 62 1014.0
20260505070812 61 22 4.0 4.0 0.00 0.00 0.00 60 1012.8
20260505070349 67 147 5.0 8.0 0.00 0.00 0.00 75 1014.0
20260505070344 60 212 0.0 0.0 0.00 0.80 0.00 95 1010.8
20260505070338 59 321 2.0 4.0 0.01 0.01 0.00 74 1014.2
20260505070334 58 225 0.0 3.0 0.05 0.06 0.00 91 1013.9
20260505070332 52 10 8.0 14.0 0.00 0.00 0.00 79 1008.7
20260505070330 54 257 0.0 0.0 0.18 0.61 0.00 94 1010.6
20260505070315 60 159 0.0 4.0 0.00 0.00 0.00 59 1014.0
20260505070311 59 211 0.0 2.0 0.00 0.00 0.00 75 1012.3
20260505065847 59 314 3.0 4.0 0.01 0.01 0.00 75 1014.2
20260505065843 66 212 7.0 7.0 0.00 0.00 0.00 77 1014.0
20260505065836 60 11 4.0 5.0 0.00 0.00 0.00 71 1011.7
20260505065831 58 224 0.0 2.0 0.04 0.05 0.00 91 1013.7
20260505065821 60 132 3.0 4.0 0.00 0.00 0.00 56 1013.9
20260505065815 61 313 2.0 6.0 0.00 0.00 0.00 59 1012.6
20260505065808 60 197 0.0 2.0 0.00 0.00 0.00 74 1012.3
20260505065347 65 154 4.0 6.0 0.00 0.00 0.00 79 1014.0
20260505065338 52 25 4.0 17.0 0.00 0.00 0.00 77 1008.7
20260505065331 57 224 0.0 0.0 0.05 0.05 0.00 91 1013.6
20260505065315 59 139 3.0 4.0 0.00 0.00 0.00 54 1013.9
20260505065307 59 197 0.0 1.0 0.00 0.00 0.00 76 1012.3
20260505064844 59 168 0.0 0.0 0.00 0.80 0.00 95 1010.7
20260505064841 65 176 5.0 7.0 0.00 0.00 0.00 79 1014.0
20260505064837 59 291 3.0 7.0 0.00 0.00 0.00 74 1014.2
20260505064832 52 45 6.0 12.0 0.00 0.00 0.00 77 1008.7
20260505064830 60 22 2.0 8.0 0.00 0.00 0.00 71 1011.6
20260505064817 59 133 2.0 2.0 0.00 0.00 0.00 62 1013.9
20260505064812 61 312 2.0 2.0 0.00 0.00 0.00 60 1012.7
20260505064810 59 197 1.0 3.0 0.00 0.00 0.00 77 1012.3
20260505064344 65 194 3.0 7.0 0.00 0.00 0.00 81 1013.9
20260505064341 59 307 5.0 7.0 0.00 0.00 0.00 74 1014.2
20260505064334 58 223 0.0 2.0 0.04 0.04 0.00 91 1013.6
20260505064332 52 51 4.0 17.0 0.00 0.00 0.00 76 1008.6
20260505064318 59 131 0.0 5.0 0.00 0.00 0.00 62 1013.8
20260505064316 58 237 0.0 2.0 0.00 0.00 0.00 77 1012.3
20260505063841 52 329 15.0 15.0 0.00 0.00 0.00 76 1008.7
20260505063837 58 309 4.0 7.0 0.00 0.00 0.00 76 1014.2
20260505063834 54 246 0.0 2.0 0.13 0.48 0.00 94 1010.5
20260505063831 58 217 1.0 2.0 0.04 0.04 0.00 91 1013.7
20260505063819 59 167 4.0 6.0 0.00 0.00 0.00 62 1013.8
20260505063815 61 327 2.0 4.0 0.00 0.00 0.00 60 1012.7
20260505063808 58 287 1.0 3.0 0.00 0.00 0.00 78 1012.3
20260505063344 59 166 0.0 0.0 0.00 0.80 0.00 95 1010.9
20260505063340 64 203 5.0 7.0 0.00 0.00 0.00 84 1014.0
20260505063338 58 316 3.0 3.0 0.00 0.00 0.00 79 1014.2
20260505063334 58 215 2.0 4.0 0.03 0.03 0.00 90 1013.9
20260505063330 54 246 2.0 3.0 0.15 0.45 0.00 94 1010.5
20260505063318 59 161 4.0 5.0 0.00 0.00 0.00 64 1013.7
20260505063316 57 213 1.0 3.0 0.00 0.00 0.00 78 1012.3
20260505063312 61 11 0.0 5.0 0.00 0.00 0.00 61 1012.7
20260505062842 58 278 1.0 4.0 0.00 0.00 0.00 80 1014.2
20260505062839 60 308 0.0 4.0 0.00 0.00 0.00 71 1011.8
20260505062835 52 355 9.0 18.0 0.00 0.00 0.00 75 1008.4
20260505062833 54 246 1.0 2.0 0.19 0.44 0.00 94 1010.5
20260505062831 58 253 2.0 3.0 0.03 0.03 0.00 90 1013.8
20260505062819 59 155 5.0 6.0 0.00 0.00 0.00 65 1013.8
20260505062813 57 205 0.0 2.0 0.00 0.00 0.00 78 1012.3
20260505062343 63 165 1.0 5.0 0.00 0.00 0.00 86 1013.9
20260505062337 58 279 0.0 3.0 0.00 0.00 0.00 80 1014.2
20260505062334 58 257 3.0 3.0 0.02 0.02 0.00 90 1013.7
20260505062332 52 0 11.0 20.0 0.00 0.00 0.00 74 1008.5
20260505062330 54 246 0.0 0.0 0.24 0.44 0.00 94 1010.5
20260505062316 59 172 3.0 7.0 0.00 0.00 0.00 65 1013.8
20260505062312 60 41 2.0 4.0 0.00 0.00 0.00 61 1012.7
20260505062307 57 205 1.0 2.0 0.00 0.00 0.00 79 1012.3
20260505061846 62 160 0.0 5.0 0.00 0.00 0.00 87 1013.9
20260505061844 58 252 0.0 2.0 0.00 0.00 0.00 80 1014.2
20260505061841 52 0 10.0 20.0 0.00 0.00 0.00 74 1008.5
20260505061833 54 245 0.0 2.0 0.28 0.44 0.00 93 1010.5
20260505061831 58 261 0.0 2.0 0.02 0.02 0.00 90 1013.7
20260505061818 60 355 0.0 7.0 0.00 0.00 0.00 62 1012.7
20260505061816 59 155 7.0 8.0 0.00 0.00 0.00 65 1013.8
20260505061807 57 198 2.0 2.0 0.00 0.00 0.00 79 1012.2
20260505061341 58 252 1.0 3.0 0.00 0.00 0.00 79 1014.2
20260505061336 54 245 1.0 2.0 0.29 0.44 0.00 93 1010.5
20260505061334 58 261 1.0 3.0 0.01 0.01 0.00 89 1013.6
20260505061330 59 307 3.0 4.0 0.00 0.00 0.00 72 1011.8
20260505061316 59 155 4.0 8.0 0.00 0.00 0.00 66 1013.8
20260505061312 60 303 4.0 5.0 0.00 0.00 0.00 61 1012.7
20260505061310 57 196 0.0 2.0 0.00 0.00 0.00 79 1012.3
20260505060846 61 170 2.0 7.0 0.00 0.00 0.00 88 1013.8
20260505060838 59 296 2.0 4.0 0.00 0.00 0.00 79 1014.2
20260505060836 53 88 5.0 13.0 0.00 0.00 0.00 73 1008.6
20260505060833 54 245 0.0 2.0 0.33 0.44 0.00 93 1010.5
20260505060831 58 262 1.0 3.0 0.01 0.01 0.00 88 1013.4
20260505060816 59 130 5.0 8.0 0.00 0.00 0.00 65 1013.6
20260505060807 57 197 0.0 1.0 0.00 0.00 0.00 80 1012.3
20260505060350 59 163 0.0 0.0 0.00 0.80 0.00 95 1010.9
20260505060343 61 166 4.0 8.0 0.00 0.00 0.00 88 1013.8
20260505060340 59 320 3.0 7.0 0.00 0.00 0.00 78 1014.1
20260505060338 53 48 6.0 14.0 0.00 0.00 0.00 73 1008.7
20260505060334 59 259 1.0 6.0 0.00 0.00 0.00 88 1013.4
20260505060331 54 244 0.0 4.0 0.35 0.44 0.00 93 1010.5
20260505060316 59 138 1.0 11.0 0.00 0.00 0.00 64 1013.6
20260505060312 60 316 4.0 7.0 0.00 0.00 0.00 61 1012.8
20260505055841 61 214 4.0 7.0 0.00 0.00 0.00 88 1013.9
20260505055838 58 282 4.0 7.0 0.00 0.00 0.00 79 1014.0
20260505055835 53 350 8.0 13.0 0.00 0.00 0.00 73 1008.7
20260505055833 54 248 3.0 3.0 0.36 0.44 0.00 93 1010.5
20260505055831 59 321 2.0 4.0 0.00 0.00 0.00 88 1013.2
20260505055822 59 150 5.0 8.0 0.00 0.00 0.00 65 1013.6
20260505055812 60 302 2.0 9.0 0.00 0.00 0.00 62 1012.8
20260505055347 60 180 5.0 7.0 0.00 0.00 0.00 89 1013.8
20260505055341 58 281 7.0 8.0 0.00 0.00 0.00 80 1014.1
20260505055336 56 157 0.0 0.0 0.00 0.00 0.00 81 1012.1
20260505055333 54 249 1.0 2.0 0.37 0.43 0.00 93 1010.5
20260505055331 59 263 2.0 4.0 0.00 0.00 0.00 87 1013.2
20260505055319 59 139 6.0 7.0 0.00 0.00 0.00 66 1013.5
20260505055312 60 311 5.0 9.0 0.00 0.00 0.00 62 1012.7
20260505054844 58 163 0.0 0.0 0.04 0.80 0.00 95 1010.9
20260505054838 53 74 1.0 10.0 0.00 0.00 0.00 73 1008.6
20260505054833 59 348 0.0 3.0 0.00 0.00 0.00 73 1011.6
20260505054831 59 288 2.0 6.0 0.00 0.00 0.00 87 1013.2
20260505054816 59 150 1.0 4.0 0.00 0.00 0.00 68 1013.4
20260505054812 60 5 6.0 8.0 0.00 0.00 0.00 63 1012.9
20260505054808 56 136 0.0 0.0 0.00 0.00 0.00 81 1012.0
20260505054343 60 165 3.0 8.0 0.00 0.00 0.00 89 1013.6
20260505054339 53 11 3.0 11.0 0.00 0.00 0.00 74 1008.6
20260505054337 59 256 1.0 6.0 0.00 0.00 0.00 82 1014.1
20260505054334 59 270 2.0 4.0 0.00 0.00 0.00 87 1013.2
20260505054330 54 248 1.0 2.0 0.33 0.37 0.00 93 1010.5
20260505054319 59 146 3.0 5.0 0.00 0.00 0.00 68 1013.4
20260505054312 60 35 0.0 1.0 0.00 0.00 0.00 63 1012.8
20260505054307 56 65 0.0 0.0 0.00 0.00 0.00 82 1011.9
20260505053840 59 128 4.0 6.0 0.00 0.00 0.00 89 1013.7
20260505053838 59 269 2.0 6.0 0.00 0.00 0.00 82 1014.1
20260505053835 53 29 4.0 10.0 0.00 0.00 0.00 74 1008.5
20260505053833 54 248 1.0 3.0 0.31 0.35 0.00 93 1010.5
20260505053831 59 264 1.0 4.0 0.00 0.00 0.00 87 1013.1
20260505053819 59 183 3.0 6.0 0.00 0.00 0.00 67 1013.3
20260505053812 60 34 0.0 4.0 0.00 0.00 0.00 63 1012.7
20260505053808 56 65 0.0 0.0 0.00 0.00 0.00 83 1011.8
20260505053344 58 163 0.0 0.0 0.12 0.80 0.00 95 1010.8
20260505053340 59 304 2.0 8.0 0.00 0.00 0.00 81 1014.0
20260505053334 59 231 3.0 4.0 0.00 0.00 0.00 86 1013.2
20260505053332 53 34 6.0 12.0 0.00 0.00 0.00 74 1008.4
20260505053330 54 248 2.0 4.0 0.26 0.29 0.00 93 1010.5
20260505053319 59 168 3.0 6.0 0.00 0.00 0.00 66 1013.3
20260505053307 55 65 0.0 0.0 0.00 0.00 0.00 83 1012.0
20260505052846 58 141 2.0 6.0 0.00 0.00 0.00 89 1013.6
20260505052838 59 308 4.0 4.0 0.00 0.00 0.00 80 1013.9
20260505052836 59 10 1.0 6.0 0.00 0.00 0.00 72 1011.5
20260505052832 53 17 10.0 11.0 0.00 0.00 0.00 74 1008.4
20260505052830 54 250 3.0 3.0 0.21 0.24 0.00 93 1010.5
20260505052819 59 146 3.0 7.0 0.00 0.00 0.00 66 1013.4
20260505052812 60 13 0.0 4.0 0.00 0.00 0.00 63 1012.7
20260505052807 55 67 0.0 0.0 0.00 0.00 0.00 83 1012.0
20260505052341 58 148 5.0 6.0 0.00 0.00 0.00 89 1013.6
20260505052336 59 43 0.0 4.0 0.00 0.00 0.00 72 1011.5
20260505052333 54 269 1.0 1.0 0.16 0.19 0.00 93 1010.5
20260505052331 59 271 0.0 1.0 0.00 0.00 0.00 86 1013.2
20260505052316 59 155 4.0 6.0 0.00 0.00 0.00 66 1013.2
20260505052307 55 66 0.0 0.0 0.00 0.00 0.00 84 1011.9
20260505051844 58 164 0.0 0.0 0.15 0.80 0.00 95 1010.9
20260505051841 58 141 2.0 6.0 0.00 0.00 0.00 89 1013.6
20260505051836 54 269 0.0 1.0 0.13 0.16 0.00 93 1010.5
20260505051834 59 271 0.0 2.0 0.00 0.00 0.00 86 1013.1
20260505051832 53 5 10.0 10.0 0.00 0.00 0.00 73 1008.5
20260505051818 60 5 0.0 7.0 0.00 0.00 0.00 63 1012.7
20260505051816 59 152 4.0 6.0 0.00 0.00 0.00 66 1013.3
20260505051807 54 38 0.0 0.0 0.00 0.00 0.00 85 1012.0
20260505051341 57 128 4.0 6.0 0.00 0.00 0.00 89 1013.7
20260505051332 53 25 6.0 10.0 0.00 0.00 0.00 72 1008.5
20260505051330 59 339 3.0 7.0 0.00 0.00 0.00 72 1011.5
20260505051322 60 162 5.0 6.0 0.00 0.00 0.00 66 1013.3
20260505051312 60 25 5.0 10.0 0.00 0.00 0.00 63 1012.7
20260505051307 54 38 0.0 0.0 0.00 0.00 0.00 85 1012.1
20260505050844 57 146 1.0 6.0 0.00 0.00 0.00 88 1013.7
20260505050837 59 298 4.0 7.0 0.00 0.00 0.00 75 1013.6
20260505050834 59 279 2.0 3.0 0.00 0.00 0.00 85 1013.1
20260505050830 59 343 1.0 4.0 0.00 0.00 0.00 72 1011.5
20260505050819 60 124 3.0 5.0 0.00 0.00 0.00 65 1013.1
20260505050812 60 15 0.0 11.0 0.00 0.00 0.00 63 1012.7
20260505050807 54 38 0.0 0.0 0.00 0.00 0.00 85 1012.2
20260505050344 57 164 0.0 0.0 0.22 0.79 0.00 94 1011.0
20260505050341 56 133 2.0 8.0 0.00 0.00 0.00 88 1013.7
20260505050338 53 334 6.0 11.0 0.00 0.00 0.00 72 1008.6
20260505050336 53 269 1.0 3.0 0.05 0.09 0.00 93 1010.5
20260505050331 59 279 0.0 2.0 0.00 0.00 0.00 84 1012.9
20260505050321 60 349 0.0 9.0 0.00 0.00 0.00 63 1012.6
20260505050316 60 137 4.0 6.0 0.00 0.00 0.00 63 1013.1
20260505050308 54 38 0.0 0.0 0.00 0.00 0.00 85 1012.2
20260505041340 57 148 2.0 5.0 0.00 0.00 0.00 86 1013.6
20260505041334 59 236 0.0 3.0 0.00 0.00 0.00 83 1013.1
20260505041332 53 9 5.0 10.0 0.00 0.00 0.00 73 1008.6
20260505041330 57 353 2.0 5.0 0.00 0.00 0.00 75 1011.7
20260505041319 60 136 0.0 0.0 0.00 0.00 0.00 62 1013.1
20260505041316 53 38 0.0 0.0 0.00 0.00 0.00 86 1012.4
20260505041312 59 11 2.0 4.0 0.00 0.00 0.00 65 1012.9
20260505040844 57 126 2.0 4.0 0.00 0.00 0.00 86 1013.6
20260505040841 53 5 8.0 10.0 0.00 0.00 0.00 73 1008.6
20260505040837 59 248 2.0 3.0 0.00 0.00 0.00 82 1013.1
20260505040831 53 252 2.0 3.0 0.01 0.03 0.00 92 1010.3
20260505040817 54 38 0.0 0.0 0.00 0.00 0.00 86 1012.3
20260505040812 59 5 0.0 7.0 0.00 0.00 0.00 65 1012.9
20260505040349 57 148 3.0 4.0 0.00 0.00 0.00 85 1013.6
20260505040344 57 119 0.0 0.0 0.30 0.56 0.00 94 1010.7
20260505040336 54 337 5.0 8.0 0.00 0.00 0.00 73 1008.6
20260505040334 60 273 1.0 3.0 0.00 0.00 0.00 82 1013.1
20260505040330 53 261 2.0 3.0 0.01 0.03 0.00 92 1010.3
20260505040316 59 91 0.0 0.0 0.00 0.00 0.00 64 1013.1
20260505040312 59 34 5.0 8.0 0.00 0.00 0.00 65 1012.8
20260505040307 53 38 0.0 0.0 0.00 0.00 0.00 86 1012.5
20260505035840 57 146 2.0 4.0 0.00 0.00 0.00 85 1013.6
20260505035837 60 279 0.0 3.0 0.00 0.00 0.00 82 1013.1
20260505035835 54 309 2.0 12.0 0.00 0.00 0.00 73 1008.8
20260505035830 53 267 1.0 2.0 0.01 0.03 0.00 91 1010.4
20260505035816 59 92 0.0 0.0 0.00 0.00 0.00 64 1013.1
20260505035807 53 38 0.0 0.0 0.00 0.00 0.00 85 1012.5
20260505035344 57 136 1.0 4.0 0.00 0.00 0.00 85 1013.6
20260505035334 60 273 2.0 3.0 0.00 0.00 0.00 81 1013.0
20260505035332 54 301 7.0 11.0 0.00 0.00 0.00 73 1008.9
20260505035330 53 267 1.0 2.0 0.01 0.03 0.00 91 1010.4
20260505035316 59 160 0.0 0.0 0.00 0.00 0.00 64 1013.2
20260505035307 54 38 0.0 1.0 0.00 0.00 0.00 84 1012.4
20260505034844 57 119 0.0 0.0 0.26 0.52 0.00 94 1010.6
20260505034840 57 143 2.0 3.0 0.00 0.00 0.00 85 1013.6
20260505034834 60 278 3.0 4.0 0.00 0.00 0.00 81 1013.0
20260505034832 54 312 3.0 11.0 0.00 0.00 0.00 73 1008.9
20260505034830 54 267 0.0 1.0 0.02 0.03 0.00 91 1010.5
20260505034819 59 161 0.0 0.0 0.00 0.00 0.00 63 1013.2
20260505034815 59 34 0.0 0.0 0.00 0.00 0.00 66 1012.9
20260505034807 54 38 0.0 0.0 0.00 0.00 0.00 84 1012.4
20260505034346 57 150 3.0 4.0 0.00 0.00 0.00 85 1013.7
20260505034333 56 80 1.0 2.0 0.00 0.00 0.00 78 1011.8
20260505034331 60 275 1.0 4.0 0.00 0.00 0.00 81 1013.1
20260505034319 59 160 0.0 0.0 0.00 0.00 0.00 62 1013.2
20260505034316 54 38 0.0 0.0 0.00 0.00 0.00 84 1012.4
20260505033844 57 149 2.0 6.0 0.00 0.00 0.00 85 1013.7
20260505033839 55 80 0.0 1.0 0.00 0.00 0.00 78 1011.8
20260505033834 60 217 0.0 3.0 0.00 0.00 0.00 81 1013.1
20260505033832 54 300 3.0 8.0 0.00 0.00 0.00 73 1009.0
20260505033822 59 160 0.0 0.0 0.00 0.00 0.00 65 1013.2
20260505033812 58 20 0.0 0.0 0.00 0.00 0.00 67 1013.1
20260505033807 54 38 0.0 0.0 0.00 0.00 0.00 84 1012.6
20260505033347 58 120 0.0 0.0 0.08 0.34 0.00 94 1011.2
20260505033340 57 149 3.0 5.0 0.00 0.00 0.00 85 1013.7
20260505033337 60 214 1.0 4.0 0.00 0.00 0.00 81 1013.2
20260505033334 53 267 1.0 3.0 0.02 0.02 0.00 91 1010.7
20260505033332 54 335 4.0 8.0 0.00 0.00 0.00 72 1009.0
20260505033330 55 80 0.0 2.0 0.00 0.00 0.00 79 1011.8
20260505033319 59 161 0.0 0.0 0.00 0.00 0.00 67 1013.2
20260505033312 59 0 0.0 1.0 0.00 0.00 0.00 67 1013.1
20260505033310 54 38 0.0 0.0 0.00 0.00 0.00 85 1012.6
20260505032846 57 154 2.0 4.0 0.00 0.00 0.00 84 1013.7
20260505032837 60 287 1.0 3.0 0.00 0.00 0.00 80 1013.2
20260505032833 54 311 4.0 9.0 0.00 0.00 0.00 72 1009.0
20260505032830 55 80 1.0 2.0 0.00 0.00 0.00 79 1011.9
20260505032822 59 160 0.0 0.0 0.00 0.00 0.00 67 1013.4
20260505032812 59 5 0.0 2.0 0.00 0.00 0.00 66 1013.3
20260505032807 53 38 0.0 0.0 0.00 0.00 0.00 85 1012.6
20260505032346 57 155 2.0 5.0 0.00 0.00 0.00 84 1013.7
20260505032336 55 80 1.0 3.0 0.00 0.00 0.00 79 1011.9
20260505032334 60 288 0.0 1.0 0.00 0.00 0.00 80 1013.2
20260505032332 54 5 3.0 8.0 0.00 0.00 0.00 72 1009.0
20260505032322 59 161 0.0 0.0 0.00 0.00 0.00 67 1013.3
20260505032313 53 38 0.0 0.0 0.00 0.00 0.00 85 1012.7
20260505031844 58 120 0.0 0.0 0.02 0.27 0.00 94 1011.4
20260505031832 54 345 5.0 10.0 0.00 0.00 0.00 72 1009.0
20260505031830 53 262 1.0 3.0 0.02 0.02 0.00 90 1010.8
20260505031819 59 84 0.0 2.0 0.00 0.00 0.00 67 1013.4
20260505031812 59 5 0.0 0.0 0.00 0.00 0.00 65 1013.3
20260505031807 53 38 0.0 1.0 0.00 0.00 0.00 86 1012.7
20260505031340 58 131 3.0 3.0 0.00 0.00 0.00 84 1013.7
20260505031336 53 262 2.0 3.0 0.02 0.02 0.00 90 1010.9
20260505031332 54 331 5.0 8.0 0.00 0.00 0.00 72 1009.0
20260505031330 55 80 1.0 3.0 0.00 0.00 0.00 79 1012.2
20260505031322 59 240 2.0 3.0 0.00 0.00 0.00 67 1013.4
20260505031315 59 5 0.0 1.0 0.00 0.00 0.00 65 1013.3
20260505031310 53 38 0.0 0.0 0.00 0.00 0.00 86 1012.7
20260505030846 58 129 1.0 3.0 0.00 0.00 0.00 84 1013.7
20260505030837 60 287 0.0 1.0 0.00 0.00 0.00 79 1013.3
20260505030835 54 19 2.0 9.0 0.00 0.00 0.00 72 1009.0
20260505030833 55 94 1.0 3.0 0.00 0.00 0.00 79 1012.2
20260505030830 54 265 1.0 2.0 0.02 0.02 0.00 90 1010.9
20260505030816 59 242 0.0 0.0 0.00 0.00 0.00 66 1013.4
20260505030807 53 38 0.0 0.0 0.00 0.00 0.00 86 1012.9
20260505030344 58 120 0.0 4.0 0.00 0.00 0.00 84 1013.6
20260505030333 55 96 3.0 5.0 0.00 0.00 0.00 79 1012.3
20260505030331 60 288 0.0 2.0 0.00 0.00 0.00 78 1013.3
20260505030316 59 242 0.0 0.0 0.00 0.00 0.00 67 1013.4
20260505030307 53 38 0.0 2.0 0.00 0.00 0.00 86 1012.8
20260505025843 58 143 3.0 4.0 0.00 0.00 0.00 83 1013.7
20260505025840 54 263 0.0 2.0 0.02 0.02 0.00 89 1011.1
20260505025836 54 57 6.0 10.0 0.00 0.00 0.00 72 1009.2
20260505025834 60 286 0.0 2.0 0.00 0.00 0.00 78 1013.3
20260505025822 59 242 0.0 0.0 0.00 0.00 0.00 67 1013.5
20260505025818 59 22 4.0 4.0 0.00 0.00 0.00 65 1013.4
20260505025813 53 36 1.0 2.0 0.00 0.00 0.00 85 1012.9
20260505025340 58 129 2.0 3.0 0.00 0.00 0.00 83 1013.7
20260505025335 54 19 3.0 7.0 0.00 0.00 0.00 71 1009.2
20260505025331 60 242 0.0 2.0 0.00 0.00 0.00 78 1013.4
20260505025319 59 242 0.0 1.0 0.00 0.00 0.00 68 1013.6
20260505025312 59 30 0.0 3.0 0.00 0.00 0.00 65 1013.4
20260505025307 53 246 2.0 2.0 0.00 0.00 0.00 85 1012.9
20260505024845 58 120 0.0 0.0 0.03 0.25 0.00 93 1011.9
20260505024840 58 129 1.0 3.0 0.00 0.00 0.00 83 1013.6
20260505024835 54 10 7.0 8.0 0.00 0.00 0.00 71 1009.3
20260505024831 54 263 2.0 2.0 0.01 0.01 0.00 89 1011.1
20260505024822 60 242 1.0 2.0 0.00 0.00 0.00 64 1013.7
20260505024812 59 15 1.0 4.0 0.00 0.00 0.00 65 1013.3
20260505024807 53 237 0.0 0.0 0.00 0.00 0.00 85 1013.0
20260505024340 58 129 1.0 5.0 0.00 0.00 0.00 83 1013.7
20260505024333 54 206 0.0 0.0 0.00 0.00 0.00 81 1012.5
20260505024331 61 232 1.0 2.0 0.00 0.00 0.00 77 1013.6
20260505024319 60 165 0.0 1.0 0.00 0.00 0.00 60 1013.9
20260505024313 53 237 0.0 0.0 0.00 0.00 0.00 85 1013.0
20260505023847 58 129 1.0 4.0 0.00 0.00 0.00 82 1013.6
20260505023836 54 336 2.0 8.0 0.00 0.00 0.00 71 1009.4
20260505023833 53 206 0.0 0.0 0.00 0.00 0.00 82 1012.5
20260505023831 61 232 3.0 3.0 0.00 0.00 0.00 77 1013.6
20260505023816 59 326 0.0 0.0 0.00 0.00 0.00 60 1014.0
20260505023812 59 42 0.0 0.0 0.00 0.00 0.00 65 1013.4
20260505023807 53 237 0.0 0.0 0.00 0.00 0.00 86 1013.0
20260505023351 58 120 0.0 0.0 0.05 0.25 0.00 93 1012.0
20260505023343 58 129 2.0 5.0 0.00 0.00 0.00 83 1013.7
20260505023333 53 206 0.0 0.0 0.00 0.00 0.00 81 1012.5
20260505023331 61 232 1.0 3.0 0.00 0.00 0.00 77 1013.6
20260505023316 59 326 0.0 0.0 0.00 0.00 0.00 61 1013.9
20260505023307 53 239 0.0 0.0 0.00 0.00 0.00 86 1012.9
20260505022843 58 183 4.0 6.0 0.00 0.00 0.00 82 1013.7
20260505022833 54 206 0.0 0.0 0.00 0.00 0.00 81 1012.6
20260505022831 61 230 1.0 4.0 0.00 0.00 0.00 76 1013.8
20260505022822 59 326 0.0 0.0 0.00 0.00 0.00 63 1013.9
20260505022813 53 239 0.0 1.0 0.00 0.00 0.00 86 1013.0
20260505022340 58 148 2.0 5.0 0.00 0.00 0.00 82 1013.7
20260505022337 61 260 0.0 3.0 0.00 0.00 0.00 76 1013.8
20260505022334 54 255 1.0 2.0 0.00 0.00 0.00 87 1011.4
20260505022332 54 5 1.0 7.0 0.00 0.00 0.00 70 1009.7
20260505022316 59 326 0.0 0.0 0.00 0.00 0.00 66 1013.9
20260505022312 59 42 0.0 0.0 0.00 0.00 0.00 66 1013.5
20260505022310 53 239 0.0 2.0 0.00 0.00 0.00 86 1013.1
20260505021848 58 120 0.0 0.0 0.06 0.25 0.00 93 1012.2
20260505021840 58 157 2.0 5.0 0.00 0.00 0.00 82 1013.7
20260505021837 61 295 1.0 1.0 0.00 0.00 0.00 75 1013.8
20260505021833 54 206 0.0 0.0 0.00 0.00 0.00 81 1012.6
20260505021819 59 326 0.0 0.0 0.00 0.00 0.00 67 1014.0
20260505021812 59 42 0.0 0.0 0.00 0.00 0.00 66 1013.5
20260505021808 53 239 1.0 2.0 0.00 0.00 0.00 85 1013.1
20260505021341 58 167 2.0 4.0 0.00 0.00 0.00 81 1013.7
20260505021338 54 323 4.0 7.0 0.00 0.00 0.00 68 1009.9
20260505021333 54 255 1.0 2.0 0.00 0.00 0.00 87 1011.5
20260505021331 61 294 0.0 2.0 0.00 0.00 0.00 75 1013.8
20260505021322 59 42 0.0 0.0 0.00 0.00 0.00 66 1013.5
20260505021316 59 326 0.0 0.0 0.00 0.00 0.00 69 1013.9
20260505021308 53 238 0.0 0.0 0.00 0.00 0.00 85 1013.1
20260505020843 57 165 2.0 4.0 0.00 0.00 0.00 82 1013.7
20260505020834 61 295 0.0 1.0 0.00 0.00 0.00 74 1013.8
20260505020832 54 34 5.0 7.0 0.00 0.00 0.00 68 1009.9
20260505020825 59 326 0.0 0.0 0.00 0.00 0.00 68 1014.0
20260505020819 59 42 0.0 0.0 0.00 0.00 0.00 67 1013.7
20260505020811 53 238 0.0 0.0 0.00 0.00 0.00 85 1013.2
20260505020341 58 120 0.0 0.0 0.07 0.23 0.00 93 1012.4
20260505020337 61 295 0.0 1.0 0.00 0.00 0.00 74 1013.8
20260505020335 54 14 2.0 5.0 0.00 0.00 0.00 67 1009.9
20260505020333 54 206 0.0 0.0 0.00 0.00 0.00 81 1012.6
20260505020327 54 255 0.0 2.0 0.00 0.00 0.00 87 1011.5
20260505020315 59 42 0.0 0.0 0.00 0.00 0.00 67 1013.7
20260505020312 59 326 0.0 0.0 0.00 0.00 0.00 68 1014.2
20260505020307 53 238 0.0 0.0 0.00 0.00 0.00 85 1013.2
20260505015840 57 134 0.0 2.0 0.00 0.00 0.00 83 1013.7
20260505015836 54 255 2.0 3.0 0.00 0.00 0.00 86 1011.7
20260505015831 61 295 0.0 1.0 0.00 0.00 0.00 74 1013.7
20260505015829 54 341 3.0 5.0 0.00 0.00 0.00 65 1009.9
20260505015816 53 238 0.0 0.0 0.00 0.00 0.00 86 1013.2
20260505015340 57 134 0.0 3.0 0.00 0.00 0.00 83 1013.7
20260505015331 61 295 0.0 1.0 0.00 0.00 0.00 74 1013.7
20260505015328 54 255 1.0 2.0 0.00 0.00 0.00 86 1011.8
20260505015318 59 42 0.0 5.0 0.00 0.00 0.00 67 1013.8
20260505015312 59 326 0.0 0.0 0.00 0.00 0.00 68 1014.2
20260505015308 53 238 0.0 0.0 0.00 0.00 0.00 86 1013.2
20260505014847 58 284 0.0 0.0 0.08 0.22 0.00 92 1012.5
20260505014841 57 138 2.0 3.0 0.00 0.00 0.00 84 1013.8
20260505014836 54 206 0.0 0.0 0.00 0.00 0.00 78 1012.8
20260505014834 61 295 0.0 2.0 0.00 0.00 0.00 74 1013.8
20260505014831 54 335 2.0 6.0 0.00 0.00 0.00 65 1010.0
20260505014815 59 54 4.0 9.0 0.00 0.00 0.00 67 1013.9
20260505014812 59 326 0.0 0.0 0.00 0.00 0.00 69 1014.3
20260505014807 53 238 0.0 0.0 0.00 0.00 0.00 85 1013.3
20260505014341 57 131 0.0 3.0 0.00 0.00 0.00 84 1013.8
20260505014331 54 313 3.0 5.0 0.00 0.00 0.00 65 1010.1
20260505014327 54 255 2.0 2.0 0.00 0.00 0.00 86 1011.8
20260505014313 53 238 0.0 0.0 0.00 0.00 0.00 85 1013.4
20260505013841 56 130 1.0 3.0 0.00 0.00 0.00 84 1013.8
20260505013834 54 355 2.0 3.0 0.00 0.00 0.00 64 1010.1
20260505013831 61 295 1.0 2.0 0.00 0.00 0.00 74 1013.8
20260505013812 59 326 0.0 0.0 0.00 0.00 0.00 71 1014.4
20260505013807 53 238 0.0 0.0 0.00 0.00 0.00 85 1013.5
20260505013350 56 121 1.0 4.0 0.00 0.00 0.00 84 1013.8
20260505013341 58 284 0.0 0.0 0.09 0.20 0.00 92 1012.6
20260505013333 54 255 0.0 2.0 0.00 0.00 0.00 86 1011.8
20260505013331 62 295 0.0 3.0 0.00 0.00 0.00 74 1013.9
20260505013315 59 219 0.0 0.0 0.00 0.00 0.00 66 1014.0
20260505013313 53 238 1.0 1.0 0.00 0.00 0.00 85 1013.6
20260505012846 56 97 1.0 3.0 0.00 0.00 0.00 83 1013.8
20260505012831 55 327 3.0 4.0 0.00 0.00 0.00 63 1010.2
20260505012815 59 326 0.0 0.0 0.00 0.00 0.00 70 1014.4
20260505012812 59 219 0.0 1.0 0.00 0.00 0.00 66 1014.0
20260505012810 53 238 0.0 1.0 0.00 0.00 0.00 84 1013.7
20260505012340 57 94 0.0 4.0 0.00 0.00 0.00 83 1013.8
20260505012336 54 206 0.0 0.0 0.00 0.00 0.00 78 1013.1
20260505012331 62 294 0.0 3.0 0.00 0.00 0.00 74 1014.0
20260505012327 54 255 1.0 2.0 0.00 0.00 0.00 86 1011.9
20260505012318 60 219 0.0 0.0 0.00 0.00 0.00 66 1014.0
20260505012312 60 326 0.0 0.0 0.00 0.00 0.00 69 1014.4
20260505012310 53 238 0.0 0.0 0.00 0.00 0.00 83 1013.6
20260505011847 58 284 0.0 0.0 0.11 0.18 0.00 91 1012.8
20260505011843 57 78 1.0 3.0 0.00 0.00 0.00 83 1013.8
20260505011831 62 302 2.0 3.0 0.00 0.00 0.00 73 1014.0
20260505011828 54 255 1.0 2.0 0.00 0.00 0.00 86 1011.9
20260505011815 60 219 0.0 0.0 0.00 0.00 0.00 65 1014.1
20260505011812 60 326 0.0 0.0 0.00 0.00 0.00 68 1014.4
20260505011807 54 238 0.0 0.0 0.00 0.00 0.00 83 1013.7
20260505011343 57 75 1.0 2.0 0.00 0.00 0.00 82 1013.9
20260505011334 55 328 3.0 6.0 0.00 0.00 0.00 63 1010.3
20260505011331 62 309 2.0 4.0 0.00 0.00 0.00 73 1014.0
20260505011321 60 219 0.0 0.0 0.00 0.00 0.00 65 1014.1
20260505011312 60 326 0.0 0.0 0.00 0.00 0.00 68 1014.5
20260505011307 54 238 0.0 0.0 0.00 0.00 0.00 83 1013.7
20260505010843 57 75 0.0 3.0 0.00 0.00 0.00 81 1013.9
20260505010834 55 314 3.0 9.0 0.00 0.00 0.00 63 1010.3
20260505010827 54 255 2.0 3.0 0.00 0.00 0.00 86 1012.2
20260505010818 60 219 0.0 0.0 0.00 0.00 0.00 65 1014.1
20260505010812 60 326 0.0 2.0 0.00 0.00 0.00 68 1014.6
20260505010807 54 238 0.0 0.0 0.00 0.00 0.00 83 1013.7
20260505010349 57 75 1.0 4.0 0.00 0.00 0.00 79 1013.9
20260505010341 58 284 0.0 0.0 0.10 0.15 0.00 91 1013.1
20260505010337 62 310 0.0 3.0 0.00 0.00 0.00 73 1014.2
20260505010330 54 206 0.0 0.0 0.00 0.00 0.00 76 1013.4
20260505010328 55 335 3.0 8.0 0.00 0.00 0.00 64 1010.5
20260505010315 60 305 1.0 2.0 0.00 0.00 0.00 68 1014.6
20260505010312 60 219 0.0 0.0 0.00 0.00 0.00 64 1014.1
20260505010307 54 237 0.0 0.0 0.00 0.00 0.00 83 1013.8
20260505005843 58 74 3.0 3.0 0.00 0.00 0.00 77 1014.0
20260505005834 62 311 1.0 3.0 0.00 0.00 0.00 73 1014.3
20260505005831 55 328 4.0 7.0 0.00 0.00 0.00 64 1010.6
20260505005815 60 219 0.0 0.0 0.00 0.00 0.00 64 1014.3
20260505005813 54 238 0.0 0.0 0.00 0.00 0.00 83 1013.8
20260505005343 59 73 2.0 4.0 0.00 0.00 0.00 78 1013.9
20260505005334 61 308 0.0 2.0 0.00 0.00 0.00 72 1014.5
20260505005328 55 335 3.0 8.0 0.00 0.00 0.00 65 1010.7
20260505005318 60 219 0.0 0.0 0.00 0.00 0.00 64 1014.4
20260505005316 54 238 0.0 0.0 0.00 0.00 0.00 83 1013.9
20260505005312 60 311 2.0 2.0 0.00 0.00 0.00 70 1014.8